Time,TemperatureF,DewpointF,PressureIn,WindDirection,WindDirectionDegrees,WindSpeedMPH,WindSpeedGustMPH,Humidity,HourlyPrecipIn,Conditions,Clouds,dailyrainin,SolarRadiationWatts/m^2,SoftwareType,DateUTC
2013-02-16 00:00:00,20.8,18.1,30.14,NNE,32,0.0,0.0,89,0.00,,,0.01,0.00,VWS V14.01,2013-02-16 05:00:00,
2013-02-16 00:05:00,20.9,18.2,30.14,NNE,32,0.0,0.0,89,0.00,,,0.00,0.00,VWS V14.01,2013-02-16 05:05:00,
2013-02-16 00:10:00,21.1,18.4,30.14,NNE,32,0.0,0.0,89,0.00,,,0.00,0.00,VWS V14.01,2013-02-16 05:10:00,
2013-02-16 00:15:00,21.3,18.6,30.13,NNE,32,0.0,0.0,89,0.00,,,0.00,0.00,VWS V14.01,2013-02-16 05:15:00,
2013-02-16 00:20:00,21.5,18.8,30.13,NNE,32,0.0,0.0,89,0.00,,,0.00,0.00,VWS V14.01,2013-02-16 05:20:00,
2013-02-16 00:23:00,21.6,18.9,30.13,NNE,32,0.0,0.0,89,0.00,,,0.00,0.00,VWS V14.01,2013-02-16 05:23:00,
2013-02-16 00:25:00,21.6,18.9,30.13,NNE,32,0.0,0.0,89,0.00,,,0.00,0.00,VWS V14.01,2013-02-16 05:25:00,
2013-02-16 00:28:00,21.7,19.0,30.13,NNE,32,0.0,0.0,89,0.00,,,0.00,0.00,VWS V14.01,2013-02-16 05:28:00,
2013-02-16 00:30:00,21.7,19.0,30.13,NNE,32,0.0,0.0,89,0.00,,,0.00,0.00,VWS V14.01,2013-02-16 05:30:00,
2013-02-16 00:33:00,21.8,19.1,30.13,NNE,32,0.0,0.0,89,0.00,,,0.00,0.00,VWS V14.01,2013-02-16 05:33:00,
2013-02-16 00:35:00,21.8,19.1,30.13,NNE,32,0.0,0.0,89,0.00,,,0.00,0.00,VWS V14.01,2013-02-16 05:35:00,
2013-02-16 00:38:00,21.9,19.4,30.13,NNE,32,0.0,0.0,90,0.00,,,0.00,0.00,VWS V14.01,2013-02-16 05:38:00,
2013-02-16 00:40:00,22.0,19.5,30.13,NNE,32,0.0,0.0,90,0.00,,,0.00,0.00,VWS V14.01,2013-02-16 05:40:00,
2013-02-16 00:43:00,22.0,19.5,30.13,NNE,32,0.0,0.0,90,0.00,,,0.00,0.00,VWS V14.01,2013-02-16 05:43:00,
2013-02-16 00:45:00,22.1,19.6,30.13,NNE,32,0.0,0.0,90,0.00,,,0.00,0.00,VWS V14.01,2013-02-16 05:45:00,
2013-02-16 00:48:00,22.2,19.7,30.13,NNE,32,0.0,0.0,90,0.00,,,0.00,0.00,VWS V14.01,2013-02-16 05:48:00,
2013-02-16 00:50:00,22.3,19.8,30.13,NNE,32,0.0,0.0,90,0.00,,,0.00,0.00,VWS V14.01,2013-02-16 05:50:00,
2013-02-16 00:53:00,22.4,19.9,30.13,NNE,32,0.0,0.0,90,0.00,,,0.00,0.00,VWS V14.01,2013-02-16 05:53:00,
2013-02-16 00:55:00,22.5,19.8,30.13,NNE,32,0.0,0.0,89,0.00,,,0.00,0.00,VWS V14.01,2013-02-16 05:55:00,
2013-02-16 00:56:00,22.5,19.8,30.13,NNE,32,0.0,0.0,89,0.00,,,0.00,0.00,VWS V14.01,2013-02-16 05:56:00,
2013-02-16 00:58:00,22.6,19.9,30.13,NNE,32,0.0,1.0,89,0.00,,,0.00,0.00,VWS V14.01,2013-02-16 05:58:00,
2013-02-16 01:00:00,22.7,20.0,30.13,NNE,32,0.0,0.0,89,0.00,,,0.00,0.00,VWS V14.01,2013-02-16 06:00:00,
2013-02-16 01:01:00,22.7,20.0,30.13,NNE,32,0.0,0.0,89,0.00,,,0.00,0.00,VWS V14.01,2013-02-16 06:01:00,
2013-02-16 01:03:00,22.8,20.0,30.13,NNE,32,0.0,0.0,89,0.00,,,0.00,0.00,VWS V14.01,2013-02-16 06:03:00,
2013-02-16 01:05:00,22.9,20.1,30.13,NNE,32,0.0,0.0,89,0.00,,,0.00,0.00,VWS V14.01,2013-02-16 06:05:00,
2013-02-16 01:06:00,22.9,20.1,30.13,NNE,32,0.0,0.0,89,0.00,,,0.00,0.00,VWS V14.01,2013-02-16 06:06:00,
2013-02-16 01:08:00,23.0,20.2,30.13,NNE,32,0.0,0.0,89,0.00,,,0.00,0.00,VWS V14.01,2013-02-16 06:08:00,
2013-02-16 01:11:00,23.0,20.2,30.13,NNE,32,0.0,0.0,89,0.00,,,0.00,0.00,VWS V14.01,2013-02-16 06:11:00,
2013-02-16 01:13:00,23.0,20.2,30.13,NNE,32,0.0,0.0,89,0.00,,,0.00,0.00,VWS V14.01,2013-02-16 06:13:00,
2013-02-16 01:15:00,23.0,20.2,30.13,NNE,32,0.0,0.0,89,0.00,,,0.00,0.00,VWS V14.01,2013-02-16 06:15:00,
2013-02-16 01:16:00,23.0,20.2,30.13,NNE,32,0.0,0.0,89,0.00,,,0.00,0.00,VWS V14.01,2013-02-16 06:16:00,
2013-02-16 01:18:00,23.0,20.2,30.13,NNE,32,0.0,0.0,89,0.00,,,0.00,0.00,VWS V14.01,2013-02-16 06:18:00,
2013-02-16 01:20:00,23.0,20.2,30.13,NNE,32,0.0,0.0,89,0.00,,,0.00,0.00,VWS V14.01,2013-02-16 06:20:00,
2013-02-16 01:21:00,23.0,20.2,30.13,NNE,32,0.0,0.0,89,0.00,,,0.00,0.00,VWS V14.01,2013-02-16 06:21:00,
2013-02-16 01:23:00,23.1,20.4,30.13,NNE,32,0.0,0.0,89,0.00,,,0.00,0.00,VWS V14.01,2013-02-16 06:23:00,
2013-02-16 01:26:00,23.0,20.2,30.13,NNE,32,0.0,0.0,89,0.00,,,0.00,0.00,VWS V14.01,2013-02-16 06:26:00,
2013-02-16 01:28:00,23.0,20.2,30.13,NNE,32,0.0,0.0,89,0.00,,,0.00,0.00,VWS V14.01,2013-02-16 06:28:00,
2013-02-16 01:31:00,22.9,20.1,30.13,NNE,32,0.0,0.0,89,0.00,,,0.00,0.00,VWS V14.01,2013-02-16 06:31:00,
2013-02-16 01:33:00,22.8,20.0,30.12,NNE,32,0.0,0.0,89,0.00,,,0.00,0.00,VWS V14.01,2013-02-16 06:33:00,
2013-02-16 01:36:00,22.7,20.0,30.12,NNE,32,0.0,0.0,89,0.00,,,0.00,0.00,VWS V14.01,2013-02-16 06:36:00,
2013-02-16 01:38:00,22.6,19.9,30.12,NNE,32,0.0,0.0,89,0.00,,,0.00,0.00,VWS V14.01,2013-02-16 06:38:00,
2013-02-16 01:41:00,22.5,19.8,30.12,NNE,32,0.0,0.0,89,0.00,,,0.00,0.00,VWS V14.01,2013-02-16 06:41:00,
2013-02-16 01:43:00,22.4,19.7,30.12,NNE,32,0.0,0.0,89,0.00,,,0.00,0.00,VWS V14.01,2013-02-16 06:43:00,
2013-02-16 01:46:00,22.3,19.6,30.12,NNE,32,0.0,0.0,89,0.00,,,0.00,0.00,VWS V14.01,2013-02-16 06:46:00,
2013-02-16 01:48:00,22.2,19.5,30.12,NNE,32,0.0,0.0,89,0.00,,,0.00,0.00,VWS V14.01,2013-02-16 06:48:00,
2013-02-16 01:51:00,22.1,19.4,30.12,NNE,32,0.0,0.0,89,0.00,,,0.00,0.00,VWS V14.01,2013-02-16 06:51:00,
2013-02-16 01:53:00,22.1,19.4,30.12,NNE,32,0.0,0.0,89,0.00,,,0.00,0.00,VWS V14.01,2013-02-16 06:53:00,
2013-02-16 01:56:00,22.0,19.3,30.12,NNE,32,0.0,0.0,89,0.00,,,0.00,0.00,VWS V14.01,2013-02-16 06:56:00,
2013-02-16 01:58:00,22.0,19.3,30.12,NNE,32,0.0,0.0,89,0.00,,,0.00,0.00,VWS V14.01,2013-02-16 06:58:00,
2013-02-16 02:01:00,21.9,19.2,30.12,NNE,32,0.0,0.0,89,0.00,,,0.00,0.00,VWS V14.01,2013-02-16 07:01:00,
2013-02-16 02:03:00,21.8,19.1,30.12,NNE,32,0.0,0.0,89,0.00,,,0.00,0.00,VWS V14.01,2013-02-16 07:03:00,
2013-02-16 02:06:00,21.7,19.2,30.12,NNE,32,0.0,0.0,90,0.00,,,0.00,0.00,VWS V14.01,2013-02-16 07:06:00,
2013-02-16 02:08:00,21.6,19.1,30.12,NNE,32,0.0,0.0,90,0.00,,,0.00,0.00,VWS V14.01,2013-02-16 07:08:00,
2013-02-16 02:11:00,21.6,19.1,30.12,NNE,32,0.0,0.0,90,0.00,,,0.00,0.00,VWS V14.01,2013-02-16 07:11:00,
2013-02-16 02:13:00,21.6,19.1,30.12,NNE,32,0.0,0.0,90,0.00,,,0.00,0.00,VWS V14.01,2013-02-16 07:13:00,
2013-02-16 02:16:00,21.7,19.2,30.11,NNE,32,0.0,0.0,90,0.00,,,0.00,0.00,VWS V14.01,2013-02-16 07:16:00,
2013-02-16 02:17:00,21.7,19.5,30.12,NNE,32,0.0,0.0,91,0.00,,,0.00,0.00,VWS V14.01,2013-02-16 07:17:00,
2013-02-16 02:18:00,21.7,19.5,30.12,NNE,32,0.0,0.0,91,0.00,,,0.00,0.00,VWS V14.01,2013-02-16 07:18:00,
2013-02-16 02:21:00,21.7,19.5,30.11,NNE,32,0.0,0.0,91,0.00,,,0.00,0.00,VWS V14.01,2013-02-16 07:21:00,
2013-02-16 02:22:00,21.8,19.6,30.11,NNE,32,0.0,0.0,91,0.00,,,0.00,0.00,VWS V14.01,2013-02-16 07:22:00,
2013-02-16 02:23:00,21.8,19.6,30.11,NNE,32,0.0,0.0,91,0.00,,,0.00,0.00,VWS V14.01,2013-02-16 07:23:00,
2013-02-16 02:26:00,21.9,19.7,30.11,NNE,32,0.0,0.0,91,0.00,,,0.00,0.00,VWS V14.01,2013-02-16 07:26:00,
2013-02-16 02:27:00,22.0,19.8,30.11,NNE,32,0.0,0.0,91,0.00,,,0.00,0.00,VWS V14.01,2013-02-16 07:27:00,
2013-02-16 02:28:00,22.1,19.9,30.11,NNE,32,0.0,0.0,91,0.00,,,0.00,0.00,VWS V14.01,2013-02-16 07:28:00,
2013-02-16 02:31:00,22.2,20.0,30.11,NNE,32,0.0,0.0,91,0.00,,,0.00,0.00,VWS V14.01,2013-02-16 07:31:00,
2013-02-16 02:32:00,22.3,20.1,30.11,NNE,32,0.0,0.0,91,0.00,,,0.00,0.00,VWS V14.01,2013-02-16 07:32:00,
2013-02-16 02:33:00,22.4,20.2,30.11,NNE,32,0.0,0.0,91,0.00,,,0.00,0.00,VWS V14.01,2013-02-16 07:33:00,
2013-02-16 02:36:00,22.5,20.3,30.11,NNE,32,0.0,0.0,91,0.00,,,0.00,0.00,VWS V14.01,2013-02-16 07:36:00,
2013-02-16 02:37:00,22.5,20.3,30.11,NNE,32,0.0,0.0,91,0.00,,,0.00,0.00,VWS V14.01,2013-02-16 07:37:00,
2013-02-16 02:38:00,22.6,20.4,30.11,NNE,32,0.0,0.0,91,0.00,,,0.00,0.00,VWS V14.01,2013-02-16 07:38:00,
2013-02-16 02:41:00,22.7,20.5,30.11,NNE,32,0.0,0.0,91,0.00,,,0.00,0.00,VWS V14.01,2013-02-16 07:41:00,
2013-02-16 02:42:00,22.7,20.5,30.11,NNE,32,0.0,0.0,91,0.00,,,0.00,0.00,VWS V14.01,2013-02-16 07:42:00,
2013-02-16 02:43:00,22.8,20.6,30.11,NNE,32,0.0,0.0,91,0.00,,,0.00,0.00,VWS V14.01,2013-02-16 07:43:00,
2013-02-16 02:46:00,22.9,20.7,30.11,NNE,32,0.0,0.0,91,0.00,,,0.00,0.00,VWS V14.01,2013-02-16 07:46:00,
2013-02-16 02:47:00,22.9,20.7,30.11,NNE,32,0.0,0.0,91,0.00,,,0.00,0.00,VWS V14.01,2013-02-16 07:47:00,
2013-02-16 02:48:00,23.0,20.8,30.11,NNE,32,0.0,0.0,91,0.00,,,0.00,0.00,VWS V14.01,2013-02-16 07:48:00,
2013-02-16 02:51:00,23.1,20.9,30.11,NNE,32,0.0,0.0,91,0.00,,,0.00,0.00,VWS V14.01,2013-02-16 07:51:00,
2013-02-16 02:52:00,23.1,20.9,30.11,NNE,32,0.0,0.0,91,0.00,,,0.00,0.00,VWS V14.01,2013-02-16 07:52:00,
2013-02-16 02:53:00,23.2,20.7,30.11,NNE,32,0.0,0.0,90,0.00,,,0.00,0.00,VWS V14.01,2013-02-16 07:53:00,
2013-02-16 02:56:00,23.3,20.8,30.11,NNE,32,0.0,0.0,90,0.00,,,0.00,0.00,VWS V14.01,2013-02-16 07:56:00,
2013-02-16 02:57:00,23.3,20.8,30.11,NNE,32,0.0,0.0,90,0.00,,,0.00,0.00,VWS V14.01,2013-02-16 07:57:00,
2013-02-16 02:58:00,23.4,20.9,30.11,NNE,32,0.0,0.0,90,0.00,,,0.00,0.00,VWS V14.01,2013-02-16 07:58:00,
2013-02-16 03:01:00,23.4,20.9,30.11,NNE,32,0.0,0.0,90,0.00,,,0.00,0.00,VWS V14.01,2013-02-16 08:01:00,
2013-02-16 03:02:00,23.5,21.0,30.11,NNE,32,0.0,0.0,90,0.00,,,0.00,0.00,VWS V14.01,2013-02-16 08:02:00,
2013-02-16 03:03:00,23.5,21.0,30.11,NNE,32,0.0,0.0,90,0.00,,,0.00,0.00,VWS V14.01,2013-02-16 08:03:00,
2013-02-16 03:06:00,23.6,21.1,30.11,NNE,32,0.0,0.0,90,0.00,,,0.00,0.00,VWS V14.01,2013-02-16 08:06:00,
2013-02-16 03:07:00,23.6,21.1,30.11,NNE,32,0.0,0.0,90,0.00,,,0.00,0.00,VWS V14.01,2013-02-16 08:07:00,
2013-02-16 03:08:00,23.7,21.2,30.11,NNE,32,0.0,0.0,90,0.00,,,0.00,0.00,VWS V14.01,2013-02-16 08:08:00,
2013-02-16 03:11:00,23.8,21.0,30.11,NNE,32,0.0,0.0,89,0.00,,,0.00,0.00,VWS V14.01,2013-02-16 08:11:00,
2013-02-16 03:12:00,23.8,21.0,30.11,NNE,32,0.0,0.0,89,0.00,,,0.00,0.00,VWS V14.01,2013-02-16 08:12:00,
2013-02-16 03:13:00,23.8,21.0,30.11,NNE,32,0.0,0.0,89,0.00,,,0.00,0.00,VWS V14.01,2013-02-16 08:13:00,
2013-02-16 03:16:00,23.9,21.1,30.11,NNE,32,0.0,0.0,89,0.00,,,0.00,0.00,VWS V14.01,2013-02-16 08:16:00,
2013-02-16 03:18:00,23.9,21.1,30.10,NNE,32,0.0,1.0,89,0.00,,,0.00,0.00,VWS V14.01,2013-02-16 08:18:00,
2013-02-16 03:21:00,24.0,21.2,30.10,NNE,32,0.0,0.0,89,0.00,,,0.00,0.00,VWS V14.01,2013-02-16 08:21:00,
2013-02-16 03:22:00,24.0,21.2,30.10,NNE,32,0.0,0.0,89,0.00,,,0.00,0.00,VWS V14.01,2013-02-16 08:22:00,
2013-02-16 03:23:00,24.0,21.2,30.10,NNE,32,0.0,0.0,89,0.00,,,0.00,0.00,VWS V14.01,2013-02-16 08:23:00,
2013-02-16 03:27:00,24.1,21.3,30.10,NNE,32,0.0,0.0,89,0.00,,,0.00,0.00,VWS V14.01,2013-02-16 08:27:00,
2013-02-16 03:28:00,24.1,21.3,30.10,NNE,32,0.0,0.0,89,0.00,,,0.00,0.00,VWS V14.01,2013-02-16 08:28:00,
2013-02-16 03:32:00,24.2,21.4,30.10,NNE,32,0.0,0.0,89,0.00,,,0.00,0.00,VWS V14.01,2013-02-16 08:32:00,
2013-02-16 03:33:00,24.2,21.4,30.10,NNE,32,0.0,0.0,89,0.00,,,0.00,0.00,VWS V14.01,2013-02-16 08:33:00,
2013-02-16 03:37:00,24.4,21.4,30.10,NNE,32,1.0,1.0,88,0.00,,,0.00,0.00,VWS V14.01,2013-02-16 08:37:00,
2013-02-16 03:38:00,24.4,21.4,30.10,NNE,32,0.0,0.0,88,0.00,,,0.00,0.00,VWS V14.01,2013-02-16 08:38:00,
2013-02-16 03:39:00,24.5,21.5,30.10,NNE,32,0.0,0.0,88,0.00,,,0.00,0.00,VWS V14.01,2013-02-16 08:39:00,
2013-02-16 03:42:00,24.6,21.3,30.10,NNE,32,0.0,2.0,87,0.00,,,0.00,0.00,VWS V14.01,2013-02-16 08:42:00,
2013-02-16 03:43:00,24.7,21.4,30.10,NNE,32,0.0,0.0,87,0.00,,,0.00,0.00,VWS V14.01,2013-02-16 08:43:00,
2013-02-16 03:44:00,24.7,21.1,30.10,NNE,31,3.0,3.0,86,0.00,,,0.00,0.00,VWS V14.01,2013-02-16 08:44:00,
2013-02-16 03:47:00,24.9,20.8,30.10,NNE,17,3.0,3.0,84,0.00,,,0.00,0.00,VWS V14.01,2013-02-16 08:47:00,
2013-02-16 03:48:00,25.0,20.6,30.10,NNE,14,2.0,4.0,83,0.00,,,0.00,0.00,VWS V14.01,2013-02-16 08:48:00,
2013-02-16 03:49:00,25.1,20.4,30.10,NNE,14,4.0,4.0,82,0.00,,,0.00,0.00,VWS V14.01,2013-02-16 08:49:00,
2013-02-16 03:52:00,25.2,19.6,30.09,North,349,5.0,5.0,79,0.00,,,0.00,0.00,VWS V14.01,2013-02-16 08:52:00,
2013-02-16 03:53:00,25.3,19.7,30.09,North,355,5.0,6.0,79,0.00,,,0.00,0.00,VWS V14.01,2013-02-16 08:53:00,
2013-02-16 03:54:00,25.3,19.4,30.09,North,355,3.0,6.0,78,0.00,,,0.00,0.00,VWS V14.01,2013-02-16 08:54:00,
2013-02-16 03:57:00,25.4,19.2,30.09,North,351,2.0,3.0,77,0.00,,,0.00,0.00,VWS V14.01,2013-02-16 08:57:00,
2013-02-16 03:58:00,25.4,19.2,30.09,North,355,1.0,4.0,77,0.00,,,0.00,0.00,VWS V14.01,2013-02-16 08:58:00,
2013-02-16 03:59:00,25.4,19.2,30.09,North,349,0.0,7.0,77,0.00,,,0.00,0.00,VWS V14.01,2013-02-16 08:59:00,
2013-02-16 04:02:00,25.4,18.6,30.09,North,5,3.0,4.0,75,0.00,,,0.00,0.00,VWS V14.01,2013-02-16 09:02:00,
2013-02-16 04:03:00,25.4,18.6,30.09,North,355,7.0,7.0,75,0.00,,,0.00,0.00,VWS V14.01,2013-02-16 09:03:00,
2013-02-16 04:04:00,25.3,18.5,30.09,NNW,347,2.0,7.0,75,0.00,,,0.00,0.00,VWS V14.01,2013-02-16 09:04:00,
2013-02-16 04:07:00,25.3,18.2,30.09,North,355,4.0,6.0,74,0.00,,,0.00,0.00,VWS V14.01,2013-02-16 09:07:00,
2013-02-16 04:08:00,25.3,18.2,30.09,North,355,3.0,3.0,74,0.00,,,0.00,0.00,VWS V14.01,2013-02-16 09:08:00,
2013-02-16 04:09:00,25.2,18.1,30.09,North,355,2.0,3.0,74,0.00,,,0.00,0.00,VWS V14.01,2013-02-16 09:09:00,
2013-02-16 04:12:00,25.2,18.4,30.09,North,355,2.0,3.0,75,0.00,,,0.00,0.00,VWS V14.01,2013-02-16 09:12:00,
2013-02-16 04:13:00,25.1,18.3,30.09,North,355,2.0,3.0,75,0.00,,,0.00,0.00,VWS V14.01,2013-02-16 09:13:00,
2013-02-16 04:14:00,25.1,18.3,30.09,North,355,3.0,3.0,75,0.00,,,0.00,0.00,VWS V14.01,2013-02-16 09:14:00,
2013-02-16 04:17:00,25.0,18.2,30.09,North,360,3.0,4.0,75,0.00,,,0.00,0.00,VWS V14.01,2013-02-16 09:17:00,
2013-02-16 04:18:00,25.0,18.2,30.09,North,360,1.0,4.0,75,0.00,,,0.00,0.00,VWS V14.01,2013-02-16 09:18:00,
2013-02-16 04:19:00,25.0,18.2,30.09,North,360,0.0,1.0,75,0.00,,,0.00,0.00,VWS V14.01,2013-02-16 09:19:00,
2013-02-16 04:22:00,24.8,18.0,30.09,North,350,6.0,7.0,75,0.00,,,0.00,0.00,VWS V14.01,2013-02-16 09:22:00,
2013-02-16 04:23:00,24.8,18.0,30.09,NNW,348,3.0,6.0,75,0.00,,,0.00,0.00,VWS V14.01,2013-02-16 09:23:00,
2013-02-16 04:24:00,24.8,18.3,30.09,NNW,348,1.0,2.0,76,0.00,,,0.00,0.00,VWS V14.01,2013-02-16 09:24:00,
2013-02-16 04:27:00,24.7,18.2,30.09,NNE,15,6.0,7.0,76,0.00,,,0.00,0.00,VWS V14.01,2013-02-16 09:27:00,
2013-02-16 04:28:00,24.7,18.2,30.09,NNW,348,4.0,6.0,76,0.00,,,0.00,0.00,VWS V14.01,2013-02-16 09:28:00,
2013-02-16 04:29:00,24.6,18.1,30.09,North,355,2.0,2.0,76,0.00,,,0.00,0.00,VWS V14.01,2013-02-16 09:29:00,
2013-02-16 04:32:00,24.6,18.4,30.09,NNW,346,3.0,3.0,77,0.00,,,0.00,0.00,VWS V14.01,2013-02-16 09:32:00,
2013-02-16 04:33:00,24.5,18.3,30.09,NNW,343,2.0,4.0,77,0.00,,,0.00,0.00,VWS V14.01,2013-02-16 09:33:00,
2013-02-16 04:34:00,24.5,18.3,30.09,NNW,340,2.0,5.0,77,0.00,,,0.00,0.00,VWS V14.01,2013-02-16 09:34:00,
2013-02-16 04:37:00,24.4,18.2,30.09,North,350,3.0,3.0,77,0.00,,,0.00,0.00,VWS V14.01,2013-02-16 09:37:00,
2013-02-16 04:38:00,24.4,18.2,30.09,North,350,0.0,4.0,77,0.00,,,0.00,0.00,VWS V14.01,2013-02-16 09:38:00,
2013-02-16 04:39:00,24.3,18.4,30.09,NNW,344,6.0,7.0,78,0.00,,,0.00,0.00,VWS V14.01,2013-02-16 09:39:00,
2013-02-16 04:42:00,24.2,18.3,30.09,North,355,3.0,3.0,78,0.00,,,0.00,0.00,VWS V14.01,2013-02-16 09:42:00,
2013-02-16 04:43:00,24.2,18.3,30.09,North,355,2.0,3.0,78,0.00,,,0.00,0.00,VWS V14.01,2013-02-16 09:43:00,
2013-02-16 04:44:00,24.2,18.6,30.09,North,355,3.0,5.0,79,0.00,,,0.00,0.00,VWS V14.01,2013-02-16 09:44:00,
2013-02-16 04:47:00,24.1,18.5,30.09,North,351,3.0,4.0,79,0.00,,,0.00,0.00,VWS V14.01,2013-02-16 09:47:00,
2013-02-16 04:48:00,24.0,18.7,30.09,NNW,348,9.0,9.0,80,0.00,,,0.00,0.00,VWS V14.01,2013-02-16 09:48:00,
2013-02-16 04:49:00,24.0,18.5,30.09,North,360,4.0,4.0,79,0.00,,,0.00,0.00,VWS V14.01,2013-02-16 09:49:00,
2013-02-16 04:52:00,23.9,18.6,30.09,North,350,3.0,4.0,80,0.00,,,0.00,0.00,VWS V14.01,2013-02-16 09:52:00,
2013-02-16 04:53:00,23.9,18.6,30.09,North,349,3.0,3.0,80,0.00,,,0.00,0.00,VWS V14.01,2013-02-16 09:53:00,
2013-02-16 04:54:00,23.9,18.6,30.09,NNW,348,4.0,5.0,80,0.00,,,0.00,0.00,VWS V14.01,2013-02-16 09:54:00,
2013-02-16 04:57:00,23.8,18.8,30.09,North,355,5.0,6.0,81,0.00,,,0.00,0.00,VWS V14.01,2013-02-16 09:57:00,
2013-02-16 04:58:00,23.7,18.7,30.09,NNW,342,3.0,3.0,81,0.00,,,0.00,0.00,VWS V14.01,2013-02-16 09:58:00,
2013-02-16 04:59:00,23.7,18.7,30.09,NNW,339,6.0,6.0,81,0.00,,,0.00,0.00,VWS V14.01,2013-02-16 09:59:00,
2013-02-16 05:02:00,23.6,18.6,30.09,North,355,2.0,3.0,81,0.00,,,0.00,0.00,VWS V14.01,2013-02-16 10:02:00,
2013-02-16 05:03:00,23.5,18.8,30.09,North,5,4.0,6.0,82,0.00,,,0.00,0.00,VWS V14.01,2013-02-16 10:03:00,
2013-02-16 05:04:00,23.5,18.8,30.09,North,360,6.0,6.0,82,0.00,,,0.00,0.00,VWS V14.01,2013-02-16 10:04:00,
2013-02-16 05:07:00,23.4,18.7,30.09,North,355,1.0,3.0,82,0.00,,,0.00,0.00,VWS V14.01,2013-02-16 10:07:00,
2013-02-16 05:08:00,23.4,19.0,30.09,North,355,1.0,3.0,83,0.00,,,0.00,0.00,VWS V14.01,2013-02-16 10:08:00,
2013-02-16 05:09:00,23.3,18.9,30.09,North,355,2.0,3.0,83,0.00,,,0.00,0.00,VWS V14.01,2013-02-16 10:09:00,
2013-02-16 05:10:00,23.3,18.9,30.09,North,360,4.0,6.0,83,0.00,,,0.00,0.00,VWS V14.01,2013-02-16 10:10:00,
2013-02-16 05:12:00,23.3,18.9,30.09,North,355,3.0,4.0,83,0.00,,,0.00,0.00,VWS V14.01,2013-02-16 10:12:00,
2013-02-16 05:13:00,23.2,18.8,30.09,North,349,5.0,8.0,83,0.00,,,0.00,0.00,VWS V14.01,2013-02-16 10:13:00,
2013-02-16 05:14:00,23.2,18.8,30.09,NNW,348,4.0,8.0,83,0.00,,,0.00,0.00,VWS V14.01,2013-02-16 10:14:00,
2013-02-16 05:15:00,23.2,18.8,30.09,NNW,347,3.0,5.0,83,0.00,,,0.00,0.00,VWS V14.01,2013-02-16 10:15:00,
2013-02-16 05:17:00,23.2,18.8,30.09,NNW,348,2.0,4.0,83,0.00,,,0.00,0.00,VWS V14.01,2013-02-16 10:17:00,
2013-02-16 05:18:00,23.2,18.8,30.09,NNW,338,3.0,4.0,83,0.00,,,0.00,0.00,VWS V14.01,2013-02-16 10:18:00,
2013-02-16 05:19:00,23.2,18.8,30.09,NNW,338,1.0,4.0,83,0.00,,,0.00,0.00,VWS V14.01,2013-02-16 10:19:00,
2013-02-16 05:20:00,23.1,19.0,30.09,NNW,338,1.0,3.0,84,0.00,,,0.00,0.00,VWS V14.01,2013-02-16 10:20:00,
2013-02-16 05:22:00,23.2,19.1,30.09,North,355,6.0,6.0,84,0.00,,,0.00,0.00,VWS V14.01,2013-02-16 10:22:00,
2013-02-16 05:23:00,23.1,19.0,30.09,North,355,4.0,5.0,84,0.00,,,0.00,0.00,VWS V14.01,2013-02-16 10:23:00,
2013-02-16 05:24:00,23.2,19.1,30.09,North,355,5.0,5.0,84,0.00,,,0.00,0.00,VWS V14.01,2013-02-16 10:24:00,
2013-02-16 05:25:00,23.1,19.0,30.09,North,355,5.0,7.0,84,0.00,,,0.00,0.00,VWS V14.01,2013-02-16 10:25:00,
2013-02-16 05:27:00,23.2,19.1,30.09,NNW,348,3.0,4.0,84,0.00,,,0.00,0.00,VWS V14.01,2013-02-16 10:27:00,
2013-02-16 05:29:00,23.2,19.1,30.09,NNW,348,3.0,4.0,84,0.00,,,0.00,0.00,VWS V14.01,2013-02-16 10:29:00,
2013-02-16 05:30:00,23.2,19.1,30.09,North,355,3.0,7.0,84,0.00,,,0.00,0.00,VWS V14.01,2013-02-16 10:30:00,
2013-02-16 05:33:00,23.3,19.2,30.09,North,351,4.0,4.0,84,0.00,,,0.00,0.00,VWS V14.01,2013-02-16 10:33:00,
2013-02-16 05:34:00,23.3,19.2,30.09,North,351,0.0,1.0,84,0.00,,,0.00,0.00,VWS V14.01,2013-02-16 10:34:00,
2013-02-16 05:35:00,23.3,19.5,30.09,North,351,3.0,3.0,85,0.00,,,0.00,0.00,VWS V14.01,2013-02-16 10:35:00,
2013-02-16 05:38:00,23.3,19.5,30.09,North,5,3.0,6.0,85,0.00,,,0.00,0.00,VWS V14.01,2013-02-16 10:38:00,
2013-02-16 05:39:00,23.3,19.5,30.09,North,5,4.0,5.0,85,0.00,,,0.00,0.00,VWS V14.01,2013-02-16 10:39:00,
2013-02-16 05:40:00,23.3,19.5,30.09,North,355,5.0,5.0,85,0.00,,,0.00,0.00,VWS V14.01,2013-02-16 10:40:00,
2013-02-16 05:43:00,23.3,19.5,30.09,North,5,1.0,3.0,85,0.00,,,0.00,0.00,VWS V14.01,2013-02-16 10:43:00,
2013-02-16 05:44:00,23.3,19.5,30.09,North,5,6.0,6.0,85,0.00,,,0.00,0.00,VWS V14.01,2013-02-16 10:44:00,
2013-02-16 05:45:00,23.3,19.5,30.09,North,360,2.0,4.0,85,0.00,,,0.00,0.00,VWS V14.01,2013-02-16 10:45:00,
2013-02-16 05:48:00,23.3,19.2,30.09,North,350,2.0,10.0,84,0.00,,,0.00,0.00,VWS V14.01,2013-02-16 10:48:00,
2013-02-16 05:49:00,23.3,19.2,30.09,North,360,4.0,6.0,84,0.00,,,0.00,0.00,VWS V14.01,2013-02-16 10:49:00,
2013-02-16 05:50:00,23.3,19.2,30.09,North,9,4.0,9.0,84,0.00,,,0.00,0.00,VWS V14.01,2013-02-16 10:50:00,
2013-02-16 05:53:00,23.3,19.2,30.09,North,360,4.0,4.0,84,0.00,,,0.00,0.00,VWS V14.01,2013-02-16 10:53:00,
2013-02-16 05:54:00,23.4,19.0,30.09,North,360,2.0,4.0,83,0.00,,,0.00,0.00,VWS V14.01,2013-02-16 10:54:00,
2013-02-16 05:55:00,23.3,18.9,30.09,North,360,0.0,2.0,83,0.00,,,0.00,0.00,VWS V14.01,2013-02-16 10:55:00,
2013-02-16 05:58:00,23.3,19.2,30.09,North,5,2.0,5.0,84,0.00,,,0.00,0.00,VWS V14.01,2013-02-16 10:58:00,
2013-02-16 05:59:00,23.3,18.9,30.09,North,5,4.0,4.0,83,0.00,,,0.00,0.00,VWS V14.01,2013-02-16 10:59:00,
2013-02-16 06:00:00,23.3,18.9,30.09,North,5,0.0,4.0,83,0.00,,,0.00,0.00,VWS V14.01,2013-02-16 11:00:00,
2013-02-16 06:03:00,23.3,19.2,30.09,North,355,6.0,7.0,84,0.00,,,0.00,0.00,VWS V14.01,2013-02-16 11:03:00,
2013-02-16 06:04:00,23.3,18.9,30.09,North,5,2.0,5.0,83,0.00,,,0.00,0.00,VWS V14.01,2013-02-16 11:04:00,
2013-02-16 06:05:00,23.3,18.9,30.09,NNW,342,3.0,5.0,83,0.00,,,0.00,0.00,VWS V14.01,2013-02-16 11:05:00,
2013-02-16 06:08:00,23.3,19.2,30.09,North,349,4.0,5.0,84,0.00,,,0.00,0.00,VWS V14.01,2013-02-16 11:08:00,
2013-02-16 06:09:00,23.3,19.2,30.09,North,351,2.0,5.0,84,0.00,,,0.00,0.00,VWS V14.01,2013-02-16 11:09:00,
2013-02-16 06:10:00,23.4,19.3,30.09,North,351,0.0,3.0,84,0.00,,,0.00,0.00,VWS V14.01,2013-02-16 11:10:00,
2013-02-16 06:13:00,23.4,19.3,30.09,North,351,3.0,4.0,84,0.00,,,0.00,0.00,VWS V14.01,2013-02-16 11:13:00,
2013-02-16 06:14:00,23.4,19.3,30.09,North,351,2.0,2.0,84,0.00,,,0.00,0.00,VWS V14.01,2013-02-16 11:14:00,
2013-02-16 06:15:00,23.5,19.4,30.09,North,5,5.0,6.0,84,0.00,,,0.00,0.00,VWS V14.01,2013-02-16 11:15:00,
2013-02-16 06:18:00,23.5,19.4,30.09,NNE,22,4.0,6.0,84,0.00,,,0.00,0.00,VWS V14.01,2013-02-16 11:18:00,
2013-02-16 06:19:00,23.5,19.4,30.09,NNE,26,3.0,3.0,84,0.00,,,0.00,0.00,VWS V14.01,2013-02-16 11:19:00,
2013-02-16 06:20:00,23.5,19.4,30.09,NNE,26,4.0,6.0,84,0.00,,,0.00,0.00,VWS V14.01,2013-02-16 11:20:00,
2013-02-16 06:23:00,23.6,19.5,30.09,NNE,24,3.0,7.0,84,0.00,,,0.00,0.00,VWS V14.01,2013-02-16 11:23:00,
2013-02-16 06:24:00,23.6,19.5,30.09,NNE,24,2.0,2.0,84,0.00,,,0.00,0.00,VWS V14.01,2013-02-16 11:24:00,
2013-02-16 06:25:00,23.6,19.5,30.09,North,5,4.0,8.0,84,0.00,,,0.00,0.00,VWS V14.01,2013-02-16 11:25:00,
2013-02-16 06:28:00,23.6,19.2,30.09,North,351,3.0,5.0,83,0.00,,,0.00,0.00,VWS V14.01,2013-02-16 11:28:00,
2013-02-16 06:29:00,23.6,19.5,30.09,North,351,2.0,2.0,84,0.00,,,0.00,0.00,VWS V14.01,2013-02-16 11:29:00,
2013-02-16 06:30:00,23.6,19.5,30.09,North,5,3.0,5.0,84,0.00,,,0.00,0.00,VWS V14.01,2013-02-16 11:30:00,
2013-02-16 06:33:00,23.6,19.5,30.09,NNE,12,2.0,2.0,84,0.00,,,0.00,0.00,VWS V14.01,2013-02-16 11:33:00,
2013-02-16 06:34:00,23.6,19.5,30.08,North,11,1.0,1.0,84,0.00,,,0.00,0.00,VWS V14.01,2013-02-16 11:34:00,
2013-02-16 06:35:00,23.6,19.5,30.08,North,11,2.0,3.0,84,0.00,,,0.00,0.00,VWS V14.01,2013-02-16 11:35:00,
2013-02-16 06:38:00,23.6,19.5,30.08,North,10,2.0,3.0,84,0.00,,,0.00,0.00,VWS V14.01,2013-02-16 11:38:00,
2013-02-16 06:39:00,23.6,19.5,30.08,North,10,2.0,3.0,84,0.00,,,0.00,0.00,VWS V14.01,2013-02-16 11:39:00,
2013-02-16 06:40:00,23.6,19.5,30.08,North,10,3.0,3.0,84,0.00,,,0.00,0.00,VWS V14.01,2013-02-16 11:40:00,
2013-02-16 06:43:00,23.6,19.5,30.08,NNE,29,5.0,6.0,84,0.00,,,0.00,0.00,VWS V14.01,2013-02-16 11:43:00,
2013-02-16 06:44:00,23.6,19.5,30.08,NNE,17,4.0,5.0,84,0.00,,,0.00,0.00,VWS V14.01,2013-02-16 11:44:00,
2013-02-16 06:45:00,23.6,19.5,30.08,NNE,13,5.0,5.0,84,0.00,,,0.00,0.00,VWS V14.01,2013-02-16 11:45:00,
2013-02-16 06:48:00,23.6,19.5,30.08,North,360,2.0,5.0,84,0.00,,,0.00,0.00,VWS V14.01,2013-02-16 11:48:00,
2013-02-16 06:49:00,23.6,19.5,30.08,NNE,23,4.0,4.0,84,0.00,,,0.00,0.00,VWS V14.01,2013-02-16 11:49:00,
2013-02-16 06:50:00,23.6,19.5,30.08,NE,40,2.0,6.0,84,0.00,,,0.00,0.00,VWS V14.01,2013-02-16 11:50:00,
2013-02-16 06:53:00,23.6,19.5,30.08,North,355,4.0,7.0,84,0.00,,,0.00,0.00,VWS V14.01,2013-02-16 11:53:00,
2013-02-16 06:54:00,23.6,19.5,30.08,North,355,2.0,3.0,84,0.00,,,0.00,0.00,VWS V14.01,2013-02-16 11:54:00,
2013-02-16 06:55:00,23.6,19.5,30.08,North,355,0.0,3.0,84,0.00,,,0.00,0.00,VWS V14.01,2013-02-16 11:55:00,
2013-02-16 06:58:00,23.6,19.5,30.08,NNE,22,3.0,3.0,84,0.00,,,0.00,0.00,VWS V14.01,2013-02-16 11:58:00,
2013-02-16 06:59:00,23.6,19.5,30.08,NNE,26,2.0,5.0,84,0.00,,,0.00,0.00,VWS V14.01,2013-02-16 11:59:00,
2013-02-16 07:00:00,23.6,19.5,30.08,NNE,26,1.0,5.0,84,0.00,,,0.00,0.00,VWS V14.01,2013-02-16 12:00:00,
2013-02-16 07:03:00,23.6,19.5,30.08,NNE,26,1.0,1.0,84,0.00,,,0.00,0.00,VWS V14.01,2013-02-16 12:03:00,
2013-02-16 07:04:00,23.6,19.5,30.08,NNE,26,1.0,2.0,84,0.00,,,0.00,0.00,VWS V14.01,2013-02-16 12:04:00,
2013-02-16 07:05:00,23.6,19.5,30.08,NNE,26,2.0,4.0,84,0.00,,,0.00,0.00,VWS V14.01,2013-02-16 12:05:00,
2013-02-16 07:08:00,23.6,19.8,30.08,NNE,26,2.0,2.0,85,0.00,,,0.00,0.00,VWS V14.01,2013-02-16 12:08:00,
2013-02-16 07:09:00,23.6,19.8,30.08,North,5,2.0,4.0,85,0.00,,,0.00,0.00,VWS V14.01,2013-02-16 12:09:00,
2013-02-16 07:10:00,23.6,19.8,30.08,North,355,5.0,6.0,85,0.00,,,0.00,0.00,VWS V14.01,2013-02-16 12:10:00,
2013-02-16 07:13:00,23.6,20.0,30.08,NNW,348,4.0,5.0,86,0.00,,,0.00,0.00,VWS V14.01,2013-02-16 12:13:00,
2013-02-16 07:14:00,23.6,20.0,30.08,North,9,2.0,5.0,86,0.00,,,0.00,0.00,VWS V14.01,2013-02-16 12:14:00,
2013-02-16 07:15:00,23.6,20.0,30.08,North,9,1.0,5.0,86,0.00,,,0.00,0.00,VWS V14.01,2013-02-16 12:15:00,
2013-02-16 07:18:00,23.5,19.7,30.08,North,360,2.0,6.0,85,0.00,,,0.00,0.00,VWS V14.01,2013-02-16 12:18:00,
2013-02-16 07:19:00,23.4,19.6,30.08,North,355,3.0,6.0,85,0.00,,,0.00,0.00,VWS V14.01,2013-02-16 12:19:00,
2013-02-16 07:20:00,23.4,19.6,30.08,North,360,4.0,4.0,85,0.00,,,0.00,0.00,VWS V14.01,2013-02-16 12:20:00,
2013-02-16 07:23:00,23.3,19.2,30.08,NNE,12,3.0,4.0,84,0.00,,,0.00,0.00,VWS V14.01,2013-02-16 12:23:00,
2013-02-16 07:25:00,23.3,19.2,30.08,North,351,6.0,6.0,84,0.00,,,0.00,0.00,VWS V14.01,2013-02-16 12:25:00,
2013-02-16 07:28:00,23.2,18.8,30.08,North,5,5.0,5.0,83,0.00,,,0.00,0.00,VWS V14.01,2013-02-16 12:28:00,
2013-02-16 07:30:00,23.1,18.7,30.09,North,9,3.0,5.0,83,0.00,,,0.00,0.00,VWS V14.01,2013-02-16 12:30:00,
2013-02-16 07:33:00,23.1,18.7,30.09,North,355,2.0,4.0,83,0.00,,,0.00,0.00,VWS V14.01,2013-02-16 12:33:00,
2013-02-16 07:35:00,23.0,18.6,30.09,North,360,4.0,5.0,83,0.00,,,0.00,0.00,VWS V14.01,2013-02-16 12:35:00,
2013-02-16 07:38:00,23.0,18.6,30.09,NNW,338,2.0,4.0,83,0.00,,,0.00,0.00,VWS V14.01,2013-02-16 12:38:00,
2013-02-16 07:40:00,22.9,18.5,30.09,North,355,5.0,7.0,83,0.00,,,0.00,0.00,VWS V14.01,2013-02-16 12:40:00,
2013-02-16 07:43:00,22.8,18.7,30.09,North,355,3.0,6.0,84,0.00,,,0.00,0.00,VWS V14.01,2013-02-16 12:43:00,
2013-02-16 07:45:00,22.8,18.7,30.09,North,5,9.0,9.0,84,0.00,,,0.00,0.00,VWS V14.01,2013-02-16 12:45:00,
2013-02-16 07:48:00,22.6,18.8,30.09,NNW,342,4.0,7.0,85,0.00,,,0.00,0.00,VWS V14.01,2013-02-16 12:48:00,
2013-02-16 07:50:00,22.6,18.8,30.09,North,360,5.0,6.0,85,0.00,,,0.00,0.00,VWS V14.01,2013-02-16 12:50:00,
2013-02-16 07:53:00,22.5,19.0,30.09,NNW,338,5.0,5.0,86,0.00,,,0.00,0.00,VWS V14.01,2013-02-16 12:53:00,
2013-02-16 07:55:00,22.4,18.9,30.09,NNW,346,5.0,6.0,86,0.00,,,0.00,0.00,VWS V14.01,2013-02-16 12:55:00,
2013-02-16 07:58:00,22.3,18.8,30.09,NNE,22,7.0,8.0,86,0.00,,,0.00,0.00,VWS V14.01,2013-02-16 12:58:00,
2013-02-16 08:00:00,22.3,18.5,30.09,North,355,6.0,7.0,85,0.00,,,0.00,0.00,VWS V14.01,2013-02-16 13:00:00,
2013-02-16 08:03:00,22.2,18.7,30.10,North,350,3.0,5.0,86,0.00,,,0.00,0.00,VWS V14.01,2013-02-16 13:03:00,
2013-02-16 08:05:00,22.2,18.7,30.10,NNE,30,6.0,8.0,86,0.00,,,0.00,0.00,VWS V14.01,2013-02-16 13:05:00,
2013-02-16 08:08:00,22.2,18.4,30.10,NNE,28,3.0,3.0,85,0.00,,,0.00,0.00,VWS V14.01,2013-02-16 13:08:00,
2013-02-16 08:10:00,22.2,18.4,30.10,NNE,14,2.0,5.0,85,0.00,,,0.00,0.00,VWS V14.01,2013-02-16 13:10:00,
2013-02-16 08:13:00,22.1,18.0,30.10,North,355,2.0,4.0,84,0.00,,,0.00,0.00,VWS V14.01,2013-02-16 13:13:00,
2013-02-16 08:15:00,22.2,18.1,30.10,NNE,15,2.0,2.0,84,0.00,,,0.00,0.00,VWS V14.01,2013-02-16 13:15:00,
2013-02-16 08:18:00,22.2,18.4,30.10,North,5,6.0,6.0,85,0.00,,,0.00,0.00,VWS V14.01,2013-02-16 13:18:00,
2013-02-16 08:20:00,22.1,18.3,30.10,North,350,3.0,3.0,85,0.00,,,0.00,0.00,VWS V14.01,2013-02-16 13:20:00,
2013-02-16 08:23:00,22.1,18.3,30.10,NNW,343,6.0,8.0,85,0.00,,,0.00,0.00,VWS V14.01,2013-02-16 13:23:00,
2013-02-16 08:25:00,22.1,18.3,30.10,NNW,344,3.0,5.0,85,0.00,,,0.00,0.00,VWS V14.01,2013-02-16 13:25:00,
2013-02-16 08:28:00,21.9,17.5,30.10,North,360,2.0,7.0,83,0.00,,,0.00,0.00,VWS V14.01,2013-02-16 13:28:00,
2013-02-16 08:30:00,21.9,17.5,30.10,NNW,347,4.0,4.0,83,0.00,,,0.00,0.00,VWS V14.01,2013-02-16 13:30:00,
2013-02-16 08:31:00,21.9,17.5,30.10,NNW,348,3.0,4.0,83,0.00,,,0.00,0.00,VWS V14.01,2013-02-16 13:31:00,
2013-02-16 08:33:00,21.8,17.2,30.10,North,355,4.0,7.0,82,0.00,,,0.00,0.00,VWS V14.01,2013-02-16 13:33:00,
2013-02-16 08:35:00,21.8,16.9,30.10,North,355,8.0,8.0,81,0.00,,,0.00,0.00,VWS V14.01,2013-02-16 13:35:00,
2013-02-16 08:36:00,21.8,16.9,30.10,North,355,4.0,8.0,81,0.00,,,0.00,0.00,VWS V14.01,2013-02-16 13:36:00,
2013-02-16 08:38:00,21.7,16.5,30.10,North,350,5.0,5.0,80,0.00,,,0.00,0.00,VWS V14.01,2013-02-16 13:38:00,
2013-02-16 08:40:00,21.7,16.5,30.10,NNW,348,2.0,4.0,80,0.00,,,0.00,0.00,VWS V14.01,2013-02-16 13:40:00,
2013-02-16 08:41:00,21.7,16.5,30.10,North,350,4.0,5.0,80,0.00,,,0.00,0.00,VWS V14.01,2013-02-16 13:41:00,
2013-02-16 08:43:00,21.6,16.4,30.10,North,355,3.0,5.0,80,0.00,,,0.00,0.00,VWS V14.01,2013-02-16 13:43:00,
2013-02-16 08:45:00,21.6,16.7,30.10,North,355,2.0,4.0,81,0.00,,,0.00,0.00,VWS V14.01,2013-02-16 13:45:00,
2013-02-16 08:46:00,21.6,16.7,30.10,North,355,1.0,4.0,81,0.00,,,0.00,0.00,VWS V14.01,2013-02-16 13:46:00,
2013-02-16 08:48:00,21.7,16.8,30.11,North,350,3.0,5.0,81,0.00,,,0.00,0.00,VWS V14.01,2013-02-16 13:48:00,
2013-02-16 08:50:00,21.8,16.9,30.11,NNW,348,2.0,3.0,81,0.00,,,0.00,0.00,VWS V14.01,2013-02-16 13:50:00,
2013-02-16 08:51:00,21.8,16.9,30.11,NNW,348,4.0,4.0,81,0.00,,,0.00,0.00,VWS V14.01,2013-02-16 13:51:00,
2013-02-16 08:53:00,21.8,16.9,30.11,North,351,5.0,5.0,81,0.00,,,0.00,0.00,VWS V14.01,2013-02-16 13:53:00,
2013-02-16 08:55:00,21.8,16.6,30.11,NNE,20,3.0,5.0,80,0.00,,,0.00,0.00,VWS V14.01,2013-02-16 13:55:00,
2013-02-16 08:56:00,21.9,16.7,30.11,NNE,19,3.0,5.0,80,0.00,,,0.00,0.00,VWS V14.01,2013-02-16 13:56:00,
2013-02-16 08:58:00,21.8,16.6,30.11,NNW,340,4.0,6.0,80,0.00,,,0.00,0.00,VWS V14.01,2013-02-16 13:58:00,
2013-02-16 09:00:00,21.8,16.6,30.11,NNW,339,4.0,7.0,80,0.00,,,0.00,0.00,VWS V14.01,2013-02-16 14:00:00,
2013-02-16 09:01:00,21.8,16.3,30.11,North,355,5.0,8.0,79,0.00,,,0.00,0.00,VWS V14.01,2013-02-16 14:01:00,
2013-02-16 09:03:00,21.8,16.3,30.11,North,5,1.0,4.0,79,0.00,,,0.00,0.00,VWS V14.01,2013-02-16 14:03:00,
2013-02-16 09:05:00,22.0,16.8,30.11,North,349,6.0,8.0,80,0.00,,,0.00,0.00,VWS V14.01,2013-02-16 14:05:00,
2013-02-16 09:06:00,22.0,16.8,30.11,North,355,7.0,8.0,80,0.00,,,0.00,0.00,VWS V14.01,2013-02-16 14:06:00,
2013-02-16 09:08:00,22.0,16.5,30.11,North,350,2.0,7.0,79,0.00,,,0.00,0.00,VWS V14.01,2013-02-16 14:08:00,
2013-02-16 09:10:00,22.0,16.5,30.11,NNE,20,4.0,4.0,79,0.00,,,0.00,0.00,VWS V14.01,2013-02-16 14:10:00,
2013-02-16 09:11:00,22.0,16.5,30.11,NE,34,5.0,5.0,79,0.00,,,0.00,0.00,VWS V14.01,2013-02-16 14:11:00,
2013-02-16 09:14:00,21.9,16.4,30.11,North,360,4.0,7.0,79,0.00,,,0.00,0.00,VWS V14.01,2013-02-16 14:14:00,
2013-02-16 09:15:00,21.9,16.4,30.11,North,360,4.0,7.0,79,0.00,,,0.00,0.00,VWS V14.01,2013-02-16 14:15:00,
2013-02-16 09:16:00,21.8,16.3,30.11,North,355,2.0,7.0,79,0.00,,,0.00,0.00,VWS V14.01,2013-02-16 14:16:00,
2013-02-16 09:19:00,21.8,16.3,30.11,NNE,28,4.0,9.0,79,0.00,,,0.00,0.00,VWS V14.01,2013-02-16 14:19:00,
2013-02-16 09:21:00,21.7,16.2,30.11,NNE,19,3.0,5.0,79,0.00,,,0.00,0.00,VWS V14.01,2013-02-16 14:21:00,
2013-02-16 09:24:00,21.7,16.2,30.11,NNE,30,2.0,6.0,79,0.00,,,0.00,0.00,VWS V14.01,2013-02-16 14:24:00,
2013-02-16 09:26:00,21.7,16.2,30.11,North,11,5.0,7.0,79,0.00,,,0.00,0.00,VWS V14.01,2013-02-16 14:26:00,
2013-02-16 09:29:00,21.6,15.8,30.11,NNW,348,4.0,15.0,78,0.00,,,0.00,0.00,VWS V14.01,2013-02-16 14:29:00,
2013-02-16 09:31:00,21.5,15.7,30.11,NNW,344,5.0,7.0,78,0.00,,,0.00,0.00,VWS V14.01,2013-02-16 14:31:00,
2013-02-16 09:34:00,21.5,15.7,30.11,NNW,344,5.0,9.0,78,0.00,,,0.00,0.00,VWS V14.01,2013-02-16 14:34:00,
2013-02-16 09:36:00,21.5,15.7,30.11,North,355,2.0,7.0,78,0.00,,,0.00,0.00,VWS V14.01,2013-02-16 14:36:00,
2013-02-16 09:39:00,21.5,15.7,30.11,NNE,33,4.0,6.0,78,0.00,,,0.00,0.00,VWS V14.01,2013-02-16 14:39:00,
2013-02-16 09:41:00,21.5,15.7,30.11,NNW,345,7.0,9.0,78,0.00,,,0.00,0.00,VWS V14.01,2013-02-16 14:41:00,
2013-02-16 09:44:00,21.5,15.4,30.11,North,351,6.0,10.0,77,0.00,,,0.00,0.00,VWS V14.01,2013-02-16 14:44:00,
2013-02-16 09:46:00,21.5,15.4,30.11,North,350,6.0,12.0,77,0.00,,,0.00,0.00,VWS V14.01,2013-02-16 14:46:00,
2013-02-16 09:49:00,21.5,15.7,30.11,North,351,3.0,4.0,78,0.00,,,0.00,0.00,VWS V14.01,2013-02-16 14:49:00,
2013-02-16 09:51:00,21.5,15.7,30.11,North,350,2.0,4.0,78,0.00,,,0.00,0.00,VWS V14.01,2013-02-16 14:51:00,
2013-02-16 09:54:00,21.8,16.3,30.11,NNE,28,6.0,10.0,79,0.00,,,0.00,0.00,VWS V14.01,2013-02-16 14:54:00,
2013-02-16 09:56:00,21.9,15.8,30.11,North,5,5.0,6.0,77,0.00,,,0.00,0.00,VWS V14.01,2013-02-16 14:56:00,
2013-02-16 09:59:00,22.0,15.9,30.11,North,5,1.0,3.0,77,0.00,,,0.00,0.00,VWS V14.01,2013-02-16 14:59:00,
2013-02-16 10:01:00,22.1,16.0,30.11,North,5,1.0,3.0,77,0.00,,,0.00,0.00,VWS V14.01,2013-02-16 15:01:00,
2013-02-16 10:05:00,22.2,16.1,30.11,NNW,336,5.0,6.0,77,0.00,,,0.00,0.00,VWS V14.01,2013-02-16 15:05:00,
2013-02-16 10:06:00,22.2,16.1,30.11,NNW,348,5.0,7.0,77,0.00,,,0.00,0.00,VWS V14.01,2013-02-16 15:06:00,
2013-02-16 10:10:00,21.9,15.8,30.11,North,355,7.0,10.0,77,0.00,,,0.00,0.00,VWS V14.01,2013-02-16 15:10:00,
2013-02-16 10:11:00,21.8,15.7,30.11,North,360,4.0,4.0,77,0.00,,,0.00,0.00,VWS V14.01,2013-02-16 15:11:00,
2013-02-16 10:12:00,21.8,15.7,30.11,North,360,5.0,6.0,77,0.00,,,0.00,0.00,VWS V14.01,2013-02-16 15:12:00,
2013-02-16 10:15:00,21.8,15.7,30.11,NNW,348,2.0,5.0,77,0.00,,,0.00,0.00,VWS V14.01,2013-02-16 15:15:00,
2013-02-16 10:16:00,21.8,16.0,30.11,NNW,344,7.0,7.0,78,0.00,,,0.00,0.00,VWS V14.01,2013-02-16 15:16:00,
2013-02-16 10:17:00,21.8,16.0,30.11,North,350,6.0,8.0,78,0.00,,,0.00,0.00,VWS V14.01,2013-02-16 15:17:00,
2013-02-16 10:20:00,21.8,16.0,30.11,North,360,8.0,8.0,78,0.00,,,0.00,0.00,VWS V14.01,2013-02-16 15:20:00,
2013-02-16 10:21:00,21.9,16.1,30.11,North,10,6.0,6.0,78,0.00,,,0.00,0.00,VWS V14.01,2013-02-16 15:21:00,
2013-02-16 10:22:00,21.9,16.1,30.11,North,350,8.0,8.0,78,0.00,,,0.00,0.00,VWS V14.01,2013-02-16 15:22:00,
2013-02-16 10:25:00,21.8,15.7,30.11,North,355,3.0,10.0,77,0.00,,,0.00,0.00,VWS V14.01,2013-02-16 15:25:00,
2013-02-16 10:26:00,21.8,15.4,30.11,NNE,28,6.0,10.0,76,0.00,,,0.00,0.00,VWS V14.01,2013-02-16 15:26:00,
2013-02-16 10:27:00,21.8,15.4,30.11,NE,45,8.0,10.0,76,0.00,,,0.00,0.00,VWS V14.01,2013-02-16 15:27:00,
2013-02-16 10:30:00,21.8,15.4,30.11,NNE,12,3.0,8.0,76,0.00,,,0.00,0.00,VWS V14.01,2013-02-16 15:30:00,
2013-02-16 10:31:00,21.8,15.4,30.11,NE,46,3.0,5.0,76,0.00,,,0.00,0.00,VWS V14.01,2013-02-16 15:31:00,
2013-02-16 10:32:00,21.8,15.4,30.11,NE,39,4.0,5.0,76,0.00,,,0.00,0.00,VWS V14.01,2013-02-16 15:32:00,
2013-02-16 10:35:00,21.9,15.2,30.11,North,355,3.0,5.0,75,0.00,,,0.00,0.00,VWS V14.01,2013-02-16 15:35:00,
2013-02-16 10:36:00,22.0,15.3,30.11,North,5,3.0,5.0,75,0.00,,,0.00,0.00,VWS V14.01,2013-02-16 15:36:00,
2013-02-16 10:37:00,22.0,15.3,30.11,North,5,2.0,5.0,75,0.00,,,0.00,0.00,VWS V14.01,2013-02-16 15:37:00,
2013-02-16 10:40:00,22.2,15.8,30.12,NNE,22,7.0,8.0,76,0.00,,,0.00,0.00,VWS V14.01,2013-02-16 15:40:00,
2013-02-16 10:41:00,22.4,15.7,30.11,NNE,26,3.0,6.0,75,0.00,,,0.00,0.00,VWS V14.01,2013-02-16 15:41:00,
2013-02-16 10:42:00,22.4,15.7,30.11,NNE,19,4.0,8.0,75,0.00,,,0.00,0.00,VWS V14.01,2013-02-16 15:42:00,
2013-02-16 10:45:00,22.5,15.8,30.11,NNW,341,4.0,9.0,75,0.00,,,0.00,0.00,VWS V14.01,2013-02-16 15:45:00,
2013-02-16 10:46:00,22.5,15.8,30.11,NW,322,3.0,6.0,75,0.00,,,0.00,0.00,VWS V14.01,2013-02-16 15:46:00,
2013-02-16 10:47:00,22.5,15.8,30.11,NW,325,5.0,6.0,75,0.00,,,0.00,0.00,VWS V14.01,2013-02-16 15:47:00,
2013-02-16 10:50:00,22.5,15.8,30.11,North,360,9.0,9.0,75,0.00,,,0.00,0.00,VWS V14.01,2013-02-16 15:50:00,
2013-02-16 10:51:00,22.6,15.6,30.11,NNE,33,3.0,10.0,74,0.00,,,0.00,0.00,VWS V14.01,2013-02-16 15:51:00,
2013-02-16 10:52:00,22.6,15.6,30.11,North,360,6.0,10.0,74,0.00,,,0.00,0.00,VWS V14.01,2013-02-16 15:52:00,
2013-02-16 10:55:00,22.6,14.9,30.11,North,355,9.0,9.0,72,0.00,,,0.00,0.00,VWS V14.01,2013-02-16 15:55:00,
2013-02-16 10:56:00,22.6,14.6,30.11,North,360,8.0,12.0,71,0.00,,,0.00,0.00,VWS V14.01,2013-02-16 15:56:00,
2013-02-16 10:57:00,22.6,14.6,30.11,NNW,346,6.0,12.0,71,0.00,,,0.00,0.00,VWS V14.01,2013-02-16 15:57:00,
2013-02-16 11:00:00,22.9,15.2,30.11,NNW,343,7.0,11.0,72,0.00,,,0.00,0.00,VWS V14.01,2013-02-16 16:00:00,
2013-02-16 11:01:00,23.0,15.0,30.11,North,355,9.0,11.0,71,0.00,,,0.00,0.00,VWS V14.01,2013-02-16 16:01:00,
2013-02-16 11:02:00,23.0,15.0,30.11,NNW,346,9.0,11.0,71,0.00,,,0.00,0.00,VWS V14.01,2013-02-16 16:02:00,
2013-02-16 11:05:00,23.1,15.8,30.11,North,351,7.0,8.0,73,0.00,,,0.00,0.00,VWS V14.01,2013-02-16 16:05:00,
2013-02-16 11:07:00,23.2,15.5,30.11,North,5,5.0,13.0,72,0.00,,,0.00,0.00,VWS V14.01,2013-02-16 16:07:00,
2013-02-16 11:10:00,22.7,14.4,30.12,North,355,9.0,9.0,70,0.00,,,0.00,0.00,VWS V14.01,2013-02-16 16:10:00,
2013-02-16 11:12:00,22.5,14.5,30.12,North,360,5.0,12.0,71,0.00,,,0.00,0.00,VWS V14.01,2013-02-16 16:12:00,
2013-02-16 11:15:00,22.2,14.6,30.11,North,355,5.0,7.0,72,0.00,,,0.00,0.00,VWS V14.01,2013-02-16 16:15:00,
2013-02-16 11:17:00,22.4,15.4,30.12,NNW,345,4.0,5.0,74,0.00,,,0.00,0.00,VWS V14.01,2013-02-16 16:17:00,
2013-02-16 11:20:00,22.3,15.0,30.11,NNW,348,5.0,9.0,73,0.00,,,0.00,0.00,VWS V14.01,2013-02-16 16:20:00,
2013-02-16 11:22:00,22.4,14.8,30.12,North,351,4.0,7.0,72,0.00,,,0.00,0.00,VWS V14.01,2013-02-16 16:22:00,
2013-02-16 11:23:00,22.4,14.8,30.12,North,355,6.0,9.0,72,0.00,,,0.00,0.00,VWS V14.01,2013-02-16 16:23:00,
2013-02-16 11:25:00,22.5,14.9,30.12,North,360,6.0,6.0,72,0.00,,,0.00,0.00,VWS V14.01,2013-02-16 16:25:00,
2013-02-16 11:27:00,22.6,14.6,30.12,North,360,13.0,13.0,71,0.00,,,0.00,0.00,VWS V14.01,2013-02-16 16:27:00,
2013-02-16 11:28:00,22.6,14.6,30.12,North,9,6.0,13.0,71,0.00,,,0.00,0.00,VWS V14.01,2013-02-16 16:28:00,
2013-02-16 11:30:00,22.6,14.6,30.11,North,350,3.0,4.0,71,0.00,,,0.00,0.00,VWS V14.01,2013-02-16 16:30:00,
2013-02-16 11:32:00,22.7,15.1,30.11,NNE,31,4.0,5.0,72,0.00,,,0.00,0.00,VWS V14.01,2013-02-16 16:32:00,
2013-02-16 11:33:00,22.7,15.1,30.11,NNE,23,3.0,5.0,72,0.00,,,0.00,0.00,VWS V14.01,2013-02-16 16:33:00,
2013-02-16 11:35:00,22.7,15.1,30.12,NNW,340,7.0,9.0,72,0.00,,,0.00,0.00,VWS V14.01,2013-02-16 16:35:00,
2013-02-16 11:37:00,22.5,14.9,30.12,NNW,346,4.0,8.0,72,0.00,,,0.00,0.00,VWS V14.01,2013-02-16 16:37:00,
2013-02-16 11:38:00,22.4,14.8,30.12,North,5,6.0,8.0,72,0.00,,,0.00,0.00,VWS V14.01,2013-02-16 16:38:00,
2013-02-16 11:40:00,22.1,13.8,30.12,NNW,342,7.0,9.0,70,0.00,,,0.00,0.00,VWS V14.01,2013-02-16 16:40:00,
2013-02-16 11:42:00,22.1,14.1,30.12,NNW,338,4.0,4.0,71,0.00,,,0.00,0.00,VWS V14.01,2013-02-16 16:42:00,
2013-02-16 11:43:00,22.2,14.2,30.12,NNW,344,3.0,5.0,71,0.00,,,0.00,0.00,VWS V14.01,2013-02-16 16:43:00,
2013-02-16 11:45:00,22.6,14.3,30.12,NNW,329,3.0,5.0,70,0.00,,,0.00,0.00,VWS V14.01,2013-02-16 16:45:00,
2013-02-16 11:47:00,22.7,13.7,30.11,North,355,10.0,10.0,68,0.00,,,0.00,0.00,VWS V14.01,2013-02-16 16:47:00,
2013-02-16 11:48:00,22.6,13.3,30.11,NNW,342,6.0,10.0,67,0.00,,,0.00,0.00,VWS V14.01,2013-02-16 16:48:00,
2013-02-16 11:50:00,22.5,13.6,30.12,North,5,9.0,10.0,68,0.00,,,0.00,0.00,VWS V14.01,2013-02-16 16:50:00,
2013-02-16 11:52:00,22.4,13.4,30.11,North,9,4.0,6.0,68,0.00,,,0.00,0.00,VWS V14.01,2013-02-16 16:52:00,
2013-02-16 11:53:00,22.4,13.4,30.11,NNW,336,9.0,9.0,68,0.00,,,0.00,0.00,VWS V14.01,2013-02-16 16:53:00,
2013-02-16 11:55:00,22.2,12.9,30.11,North,350,6.0,10.0,67,0.00,,,0.00,0.00,VWS V14.01,2013-02-16 16:55:00,
2013-02-16 11:57:00,22.1,13.2,30.11,North,5,7.0,8.0,68,0.00,,,0.00,0.00,VWS V14.01,2013-02-16 16:57:00,
2013-02-16 11:58:00,22.2,13.3,30.11,NNW,339,3.0,8.0,68,0.00,,,0.00,0.00,VWS V14.01,2013-02-16 16:58:00,
2013-02-16 12:00:00,22.5,14.2,30.11,NNW,343,3.0,9.0,70,0.00,,,0.00,0.00,VWS V14.01,2013-02-16 17:00:00,
2013-02-16 12:02:00,22.6,14.0,30.11,NNE,29,5.0,10.0,69,0.00,,,0.00,0.00,VWS V14.01,2013-02-16 17:02:00,
2013-02-16 12:03:00,22.5,13.6,30.11,NNE,26,5.0,10.0,68,0.00,,,0.00,0.00,VWS V14.01,2013-02-16 17:03:00,
2013-02-16 12:05:00,22.5,13.6,30.11,NNW,346,8.0,11.0,68,0.00,,,0.00,0.00,VWS V14.01,2013-02-16 17:05:00,
2013-02-16 12:07:00,22.4,13.4,30.11,North,355,7.0,7.0,68,0.00,,,0.00,0.00,VWS V14.01,2013-02-16 17:07:00,
2013-02-16 12:08:00,22.4,13.4,30.11,NNW,333,6.0,7.0,68,0.00,,,0.00,0.00,VWS V14.01,2013-02-16 17:08:00,
2013-02-16 12:11:00,22.4,13.1,30.11,North,5,5.0,12.0,67,0.00,,,0.00,0.00,VWS V14.01,2013-02-16 17:11:00,
2013-02-16 12:12:00,22.5,13.2,30.11,North,5,3.0,7.0,67,0.00,,,0.00,0.00,VWS V14.01,2013-02-16 17:12:00,
2013-02-16 12:13:00,22.5,13.6,30.11,NNE,30,10.0,10.0,68,0.00,,,0.00,0.00,VWS V14.01,2013-02-16 17:13:00,
2013-02-16 12:16:00,22.6,13.0,30.11,North,11,7.0,10.0,66,0.00,,,0.00,0.00,VWS V14.01,2013-02-16 17:16:00,
2013-02-16 12:17:00,22.5,12.9,30.11,NNW,344,6.0,7.0,66,0.00,,,0.00,0.00,VWS V14.01,2013-02-16 17:17:00,
2013-02-16 12:18:00,22.5,12.9,30.11,NNW,341,4.0,7.0,66,0.00,,,0.00,0.00,VWS V14.01,2013-02-16 17:18:00,
2013-02-16 12:21:00,22.4,13.1,30.11,NNW,332,5.0,6.0,67,0.00,,,0.00,0.00,VWS V14.01,2013-02-16 17:21:00,
2013-02-16 12:22:00,22.4,13.1,30.11,North,360,6.0,11.0,67,0.00,,,0.00,0.00,VWS V14.01,2013-02-16 17:22:00,
2013-02-16 12:23:00,22.5,13.2,30.11,NNW,336,6.0,6.0,67,0.00,,,0.00,0.00,VWS V14.01,2013-02-16 17:23:00,
2013-02-16 12:26:00,22.4,12.8,30.11,North,5,3.0,7.0,66,0.00,,,0.00,0.00,VWS V14.01,2013-02-16 17:26:00,
2013-02-16 12:28:00,22.4,12.8,30.11,NNW,340,6.0,7.0,66,0.00,,,0.00,0.00,VWS V14.01,2013-02-16 17:28:00,
2013-02-16 12:31:00,22.3,12.3,30.11,North,11,5.0,9.0,65,0.00,,,0.00,0.00,VWS V14.01,2013-02-16 17:31:00,
2013-02-16 12:33:00,22.3,12.7,30.11,North,5,6.0,14.0,66,0.00,,,0.00,0.00,VWS V14.01,2013-02-16 17:33:00,
2013-02-16 12:36:00,22.3,12.0,30.11,North,355,5.0,6.0,64,0.00,,,0.00,0.00,VWS V14.01,2013-02-16 17:36:00,
2013-02-16 12:38:00,22.2,11.5,30.11,NNW,334,9.0,10.0,63,0.00,,,0.00,0.00,VWS V14.01,2013-02-16 17:38:00,
2013-02-16 12:41:00,22.2,11.9,30.11,North,5,8.0,9.0,64,0.00,,,0.00,0.00,VWS V14.01,2013-02-16 17:41:00,
2013-02-16 12:43:00,22.3,11.6,30.11,North,5,7.0,13.0,63,0.00,,,0.00,0.00,VWS V14.01,2013-02-16 17:43:00,
2013-02-16 12:46:00,22.4,12.1,30.11,North,5,5.0,5.0,64,0.00,,,0.00,0.00,VWS V14.01,2013-02-16 17:46:00,
2013-02-16 12:48:00,22.7,12.7,30.11,North,355,2.0,9.0,65,0.00,,,0.00,0.00,VWS V14.01,2013-02-16 17:48:00,
2013-02-16 12:49:00,22.9,12.9,30.10,North,5,10.0,12.0,65,0.00,,,0.00,0.00,VWS V14.01,2013-02-16 17:49:00,
2013-02-16 12:51:00,23.1,12.4,30.10,NNW,332,6.0,10.0,63,0.00,,,0.00,0.00,VWS V14.01,2013-02-16 17:51:00,
2013-02-16 12:53:00,23.2,12.5,30.10,NNW,342,10.0,10.0,63,0.00,,,0.00,0.00,VWS V14.01,2013-02-16 17:53:00,
2013-02-16 12:54:00,23.2,12.5,30.10,NNE,22,4.0,8.0,63,0.00,,,0.00,0.00,VWS V14.01,2013-02-16 17:54:00,
2013-02-16 12:56:00,23.3,12.9,30.10,North,5,9.0,9.0,64,0.00,,,0.00,0.00,VWS V14.01,2013-02-16 17:56:00,
2013-02-16 12:58:00,23.2,12.5,30.10,NNW,334,5.0,9.0,63,0.00,,,0.00,0.00,VWS V14.01,2013-02-16 17:58:00,
2013-02-16 12:59:00,23.1,12.4,30.10,NNW,338,7.0,8.0,63,0.00,,,0.00,0.00,VWS V14.01,2013-02-16 17:59:00,
2013-02-16 13:01:00,23.1,12.4,30.10,North,360,6.0,7.0,63,0.00,,,0.00,0.00,VWS V14.01,2013-02-16 18:01:00,
2013-02-16 13:03:00,23.3,12.6,30.10,North,355,8.0,10.0,63,0.00,,,0.00,0.00,VWS V14.01,2013-02-16 18:03:00,
2013-02-16 13:04:00,23.3,12.6,30.10,NNW,344,7.0,8.0,63,0.00,,,0.00,0.00,VWS V14.01,2013-02-16 18:04:00,
2013-02-16 13:06:00,23.4,12.3,30.10,NW,304,5.0,7.0,62,0.00,,,0.00,0.00,VWS V14.01,2013-02-16 18:06:00,
2013-02-16 13:08:00,23.3,11.5,30.10,NNW,345,6.0,9.0,60,0.00,,,0.00,0.00,VWS V14.01,2013-02-16 18:08:00,
2013-02-16 13:09:00,23.3,11.5,30.10,NNW,338,10.0,10.0,60,0.00,,,0.00,0.00,VWS V14.01,2013-02-16 18:09:00,
2013-02-16 13:11:00,23.3,11.9,30.10,NNE,22,3.0,3.0,61,0.00,,,0.00,0.00,VWS V14.01,2013-02-16 18:11:00,
2013-02-16 13:13:00,23.3,11.9,30.10,NNW,342,15.0,17.0,61,0.00,,,0.00,0.00,VWS V14.01,2013-02-16 18:13:00,
2013-02-16 13:14:00,23.2,11.8,30.10,NNW,342,6.0,17.0,61,0.00,,,0.00,0.00,VWS V14.01,2013-02-16 18:14:00,
2013-02-16 13:16:00,23.0,11.9,30.10,NNE,16,6.0,7.0,62,0.00,,,0.00,0.00,VWS V14.01,2013-02-16 18:16:00,
2013-02-16 13:18:00,22.9,11.8,30.10,North,355,7.0,7.0,62,0.00,,,0.00,0.00,VWS V14.01,2013-02-16 18:18:00,
2013-02-16 13:19:00,22.9,11.8,30.10,NNW,341,7.0,10.0,62,0.00,,,0.00,0.00,VWS V14.01,2013-02-16 18:19:00,
2013-02-16 13:21:00,22.7,12.0,30.10,NNE,30,6.0,6.0,63,0.00,,,0.00,0.00,VWS V14.01,2013-02-16 18:21:00,
2013-02-16 13:23:00,22.7,12.0,30.10,North,5,6.0,6.0,63,0.00,,,0.00,0.00,VWS V14.01,2013-02-16 18:23:00,
2013-02-16 13:24:00,22.7,12.0,30.10,NNW,340,6.0,8.0,63,0.00,,,0.00,0.00,VWS V14.01,2013-02-16 18:24:00,
2013-02-16 13:26:00,22.5,11.8,30.10,ENE,58,9.0,9.0,63,0.00,,,0.00,0.00,VWS V14.01,2013-02-16 18:26:00,
2013-02-16 13:28:00,22.5,11.8,30.10,NNE,32,7.0,12.0,63,0.00,,,0.00,0.00,VWS V14.01,2013-02-16 18:28:00,
2013-02-16 13:29:00,22.5,11.8,30.10,NE,53,6.0,12.0,63,0.00,,,0.00,0.00,VWS V14.01,2013-02-16 18:29:00,
2013-02-16 13:31:00,22.4,11.4,30.09,NNE,32,4.0,7.0,62,0.00,,,0.00,0.00,VWS V14.01,2013-02-16 18:31:00,
2013-02-16 13:33:00,22.3,11.3,30.10,NNW,348,6.0,7.0,62,0.00,,,0.00,0.00,VWS V14.01,2013-02-16 18:33:00,
2013-02-16 13:34:00,22.3,11.3,30.10,NNE,16,7.0,10.0,62,0.00,,,0.00,0.00,VWS V14.01,2013-02-16 18:34:00,
2013-02-16 13:36:00,22.3,11.3,30.09,North,5,4.0,10.0,62,0.00,,,0.00,0.00,VWS V14.01,2013-02-16 18:36:00,
2013-02-16 13:38:00,22.4,11.4,30.09,North,5,10.0,10.0,62,0.00,,,0.00,0.00,VWS V14.01,2013-02-16 18:38:00,
2013-02-16 13:39:00,22.4,11.4,30.09,NNW,338,4.0,10.0,62,0.00,,,0.00,0.00,VWS V14.01,2013-02-16 18:39:00,
2013-02-16 13:41:00,22.5,11.5,30.09,North,350,7.0,12.0,62,0.00,,,0.00,0.00,VWS V14.01,2013-02-16 18:41:00,
2013-02-16 13:43:00,22.5,11.8,30.09,NNE,24,5.0,5.0,63,0.00,,,0.00,0.00,VWS V14.01,2013-02-16 18:43:00,
2013-02-16 13:44:00,22.4,11.4,30.09,NNE,16,7.0,12.0,62,0.00,,,0.00,0.00,VWS V14.01,2013-02-16 18:44:00,
2013-02-16 13:46:00,22.3,10.9,30.09,NNW,341,8.0,8.0,61,0.00,,,0.00,0.00,VWS V14.01,2013-02-16 18:46:00,
2013-02-16 13:48:00,22.2,10.4,30.09,NNE,17,4.0,6.0,60,0.00,,,0.00,0.00,VWS V14.01,2013-02-16 18:48:00,
2013-02-16 13:49:00,22.3,10.5,30.09,North,11,6.0,6.0,60,0.00,,,0.00,0.00,VWS V14.01,2013-02-16 18:49:00,
2013-02-16 13:52:00,22.7,10.9,30.09,NNW,332,5.0,5.0,60,0.00,,,0.00,0.00,VWS V14.01,2013-02-16 18:52:00,
2013-02-16 13:53:00,22.8,11.0,30.09,North,360,4.0,8.0,60,0.00,,,0.00,0.00,VWS V14.01,2013-02-16 18:53:00,
2013-02-16 13:54:00,22.9,11.1,30.09,North,355,11.0,11.0,60,0.00,,,0.00,0.00,VWS V14.01,2013-02-16 18:54:00,
2013-02-16 13:57:00,22.7,10.9,30.09,NNW,342,7.0,13.0,60,0.00,,,0.00,0.00,VWS V14.01,2013-02-16 18:57:00,
2013-02-16 13:58:00,22.7,10.9,30.09,NNW,331,3.0,6.0,60,0.00,,,0.00,0.00,VWS V14.01,2013-02-16 18:58:00,
2013-02-16 13:59:00,22.7,11.3,30.09,NNW,347,4.0,4.0,61,0.00,,,0.00,0.00,VWS V14.01,2013-02-16 18:59:00,
2013-02-16 14:02:00,23.0,11.6,30.09,NE,36,12.0,13.0,61,0.00,,,0.00,0.00,VWS V14.01,2013-02-16 19:02:00,
2013-02-16 14:03:00,22.9,11.1,30.09,North,360,8.0,9.0,60,0.00,,,0.00,0.00,VWS V14.01,2013-02-16 19:03:00,
2013-02-16 14:04:00,22.8,11.0,30.09,NNE,29,5.0,7.0,60,0.00,,,0.00,0.00,VWS V14.01,2013-02-16 19:04:00,
2013-02-16 14:07:00,22.9,11.5,30.10,North,355,5.0,5.0,61,0.00,,,0.00,0.00,VWS V14.01,2013-02-16 19:07:00,
2013-02-16 14:08:00,23.2,11.8,30.09,NE,43,4.0,7.0,61,0.00,,,0.00,0.00,VWS V14.01,2013-02-16 19:08:00,
2013-02-16 14:09:00,23.4,11.6,30.09,North,5,5.0,7.0,60,0.00,,,0.00,0.00,VWS V14.01,2013-02-16 19:09:00,
2013-02-16 14:12:00,23.9,12.4,30.09,North,360,3.0,7.0,61,0.00,,,0.00,0.00,VWS V14.01,2013-02-16 19:12:00,
2013-02-16 14:13:00,24.3,12.4,30.09,NE,40,8.0,8.0,60,0.00,,,0.00,0.00,VWS V14.01,2013-02-16 19:13:00,
2013-02-16 14:14:00,24.4,12.1,30.09,North,5,4.0,7.0,59,0.00,,,0.00,0.00,VWS V14.01,2013-02-16 19:14:00,
2013-02-16 14:15:00,24.5,12.2,30.09,NNW,340,4.0,7.0,59,0.00,,,0.00,0.00,VWS V14.01,2013-02-16 19:15:00,
2013-02-16 14:17:00,24.5,11.1,30.09,NW,319,6.0,12.0,56,0.00,,,0.00,0.00,VWS V14.01,2013-02-16 19:17:00,
2013-02-16 14:18:00,24.1,10.3,30.09,NNW,348,9.0,13.0,55,0.00,,,0.00,0.00,VWS V14.01,2013-02-16 19:18:00,
2013-02-16 14:19:00,23.9,10.1,30.09,North,5,9.0,9.0,55,0.00,,,0.00,0.00,VWS V14.01,2013-02-16 19:19:00,
2013-02-16 14:20:00,23.8,10.0,30.09,NNW,348,6.0,9.0,55,0.00,,,0.00,0.00,VWS V14.01,2013-02-16 19:20:00,
2013-02-16 14:22:00,23.5,10.5,30.09,North,5,3.0,7.0,57,0.00,,,0.00,0.00,VWS V14.01,2013-02-16 19:22:00,
2013-02-16 14:23:00,23.4,11.2,30.10,NNW,339,5.0,12.0,59,0.00,,,0.00,0.00,VWS V14.01,2013-02-16 19:23:00,
2013-02-16 14:24:00,23.3,11.5,30.10,NNE,31,11.0,13.0,60,0.00,,,0.00,0.00,VWS V14.01,2013-02-16 19:24:00,
2013-02-16 14:25:00,23.3,11.5,30.10,NE,40,5.0,13.0,60,0.00,,,0.00,0.00,VWS V14.01,2013-02-16 19:25:00,
2013-02-16 14:27:00,22.9,11.5,30.09,NE,53,6.0,11.0,61,0.00,,,0.00,0.00,VWS V14.01,2013-02-16 19:27:00,
2013-02-16 14:28:00,22.7,11.6,30.10,ENE,73,9.0,13.0,62,0.00,,,0.00,0.00,VWS V14.01,2013-02-16 19:28:00,
2013-02-16 14:29:00,22.6,11.6,30.10,NNE,24,6.0,8.0,62,0.00,,,0.00,0.00,VWS V14.01,2013-02-16 19:29:00,
2013-02-16 14:30:00,22.6,11.6,30.10,NNE,32,6.0,8.0,62,0.00,,,0.00,0.00,VWS V14.01,2013-02-16 19:30:00,
2013-02-16 14:32:00,22.5,11.5,30.10,NNE,28,7.0,11.0,62,0.00,,,0.00,0.00,VWS V14.01,2013-02-16 19:32:00,
2013-02-16 14:34:00,22.5,11.8,30.10,NNE,25,2.0,5.0,63,0.00,,,0.00,0.00,VWS V14.01,2013-02-16 19:34:00,
2013-02-16 14:35:00,22.6,11.6,30.10,NNE,28,4.0,8.0,62,0.00,,,0.00,0.00,VWS V14.01,2013-02-16 19:35:00,
2013-02-16 14:37:00,22.8,11.4,30.09,North,355,3.0,7.0,61,0.00,,,0.00,0.00,VWS V14.01,2013-02-16 19:37:00,
2013-02-16 14:39:00,23.0,11.2,30.09,NNW,342,7.0,12.0,60,0.00,,,0.00,0.00,VWS V14.01,2013-02-16 19:39:00,
2013-02-16 14:40:00,22.9,10.3,30.09,NNE,26,6.0,10.0,58,0.00,,,0.00,0.00,VWS V14.01,2013-02-16 19:40:00,
2013-02-16 14:42:00,22.8,10.6,30.09,North,360,7.0,14.0,59,0.00,,,0.00,0.00,VWS V14.01,2013-02-16 19:42:00,
2013-02-16 14:44:00,22.6,10.8,30.09,NE,34,7.0,11.0,60,0.00,,,0.00,0.00,VWS V14.01,2013-02-16 19:44:00,
2013-02-16 14:45:00,22.5,11.1,30.09,NNW,338,8.0,14.0,61,0.00,,,0.00,0.00,VWS V14.01,2013-02-16 19:45:00,
2013-02-16 14:47:00,22.3,11.3,30.09,North,5,5.0,7.0,62,0.00,,,0.00,0.00,VWS V14.01,2013-02-16 19:47:00,
2013-02-16 14:49:00,22.4,11.7,30.10,North,11,3.0,7.0,63,0.00,,,0.00,0.00,VWS V14.01,2013-02-16 19:49:00,
2013-02-16 14:50:00,22.4,11.7,30.10,NE,38,6.0,12.0,63,0.00,,,0.00,0.00,VWS V14.01,2013-02-16 19:50:00,
2013-02-16 14:52:00,22.4,11.4,30.10,NNW,346,7.0,8.0,62,0.00,,,0.00,0.00,VWS V14.01,2013-02-16 19:52:00,
2013-02-16 14:54:00,22.4,11.0,30.10,NE,49,8.0,13.0,61,0.00,,,0.00,0.00,VWS V14.01,2013-02-16 19:54:00,
2013-02-16 14:55:00,22.4,10.6,30.10,NNE,17,8.0,11.0,60,0.00,,,0.00,0.00,VWS V14.01,2013-02-16 19:55:00,
2013-02-16 14:57:00,22.4,10.3,30.10,NE,39,3.0,9.0,59,0.00,,,0.00,0.00,VWS V14.01,2013-02-16 19:57:00,
2013-02-16 14:59:00,22.6,10.8,30.09,NNE,21,5.0,7.0,60,0.00,,,0.00,0.00,VWS V14.01,2013-02-16 19:59:00,
2013-02-16 15:00:00,22.7,10.9,30.09,North,360,4.0,10.0,60,0.00,,,0.00,0.00,VWS V14.01,2013-02-16 20:00:00,
2013-02-16 15:02:00,23.1,10.9,30.09,North,355,3.0,7.0,59,0.00,,,0.00,0.00,VWS V14.01,2013-02-16 20:02:00,
2013-02-16 15:04:00,23.3,10.7,30.09,NNE,30,4.0,6.0,58,0.00,,,0.00,0.00,VWS V14.01,2013-02-16 20:04:00,
2013-02-16 15:05:00,23.3,10.7,30.09,North,9,3.0,14.0,58,0.00,,,0.00,0.00,VWS V14.01,2013-02-16 20:05:00,
2013-02-16 15:07:00,23.2,10.2,30.09,North,11,6.0,16.0,57,0.00,,,0.00,0.00,VWS V14.01,2013-02-16 20:07:00,
2013-02-16 15:09:00,22.9,10.3,30.10,NE,55,15.0,15.0,58,0.00,,,0.00,0.00,VWS V14.01,2013-02-16 20:09:00,
2013-02-16 15:10:00,22.8,10.2,30.10,NE,41,8.0,15.0,58,0.00,,,0.00,0.00,VWS V14.01,2013-02-16 20:10:00,
2013-02-16 15:12:00,22.6,10.1,30.10,NNE,15,4.0,15.0,58,0.00,,,0.00,0.00,VWS V14.01,2013-02-16 20:12:00,
2013-02-16 15:14:00,22.4,9.9,30.09,North,11,4.0,6.0,58,0.00,,,0.00,0.00,VWS V14.01,2013-02-16 20:14:00,
2013-02-16 15:15:00,22.4,10.3,30.09,NNE,30,3.0,8.0,59,0.00,,,0.00,0.00,VWS V14.01,2013-02-16 20:15:00,
2013-02-16 15:17:00,22.4,10.6,30.09,NE,49,4.0,7.0,60,0.00,,,0.00,0.00,VWS V14.01,2013-02-16 20:17:00,
2013-02-16 15:19:00,22.4,10.3,30.09,ENE,76,7.0,7.0,59,0.00,,,0.00,0.00,VWS V14.01,2013-02-16 20:19:00,
2013-02-16 15:20:00,22.4,10.3,30.09,NE,46,10.0,13.0,59,0.00,,,0.00,0.00,VWS V14.01,2013-02-16 20:20:00,
2013-02-16 15:22:00,22.3,9.8,30.09,NNE,32,2.0,5.0,58,0.00,,,0.00,0.00,VWS V14.01,2013-02-16 20:22:00,
2013-02-16 15:24:00,22.4,9.9,30.09,North,355,9.0,10.0,58,0.00,,,0.00,0.00,VWS V14.01,2013-02-16 20:24:00,
2013-02-16 15:25:00,22.4,9.9,30.09,NNE,18,5.0,10.0,58,0.00,,,0.00,0.00,VWS V14.01,2013-02-16 20:25:00,
2013-02-16 15:26:00,22.4,9.5,30.09,North,9,5.0,6.0,57,0.00,,,0.00,0.00,VWS V14.01,2013-02-16 20:26:00,
2013-02-16 15:27:00,22.4,9.9,30.09,NE,35,15.0,15.0,58,0.00,,,0.00,0.00,VWS V14.01,2013-02-16 20:27:00,
2013-02-16 15:29:00,22.3,9.4,30.10,North,11,5.0,5.0,57,0.00,,,0.00,0.00,VWS V14.01,2013-02-16 20:29:00,
2013-02-16 15:30:00,22.2,9.7,30.10,North,360,4.0,9.0,58,0.00,,,0.00,0.00,VWS V14.01,2013-02-16 20:30:00,
2013-02-16 15:31:00,22.2,9.7,30.09,NE,40,3.0,5.0,58,0.00,,,0.00,0.00,VWS V14.01,2013-02-16 20:31:00,
2013-02-16 15:32:00,22.1,9.6,30.10,NE,51,5.0,9.0,58,0.00,,,0.00,0.00,VWS V14.01,2013-02-16 20:32:00,
2013-02-16 15:34:00,22.0,9.9,30.10,NE,36,10.0,14.0,59,0.00,,,0.00,0.00,VWS V14.01,2013-02-16 20:34:00,
2013-02-16 15:35:00,22.0,9.9,30.10,NNE,26,6.0,14.0,59,0.00,,,0.00,0.00,VWS V14.01,2013-02-16 20:35:00,
2013-02-16 15:36:00,22.0,9.9,30.10,ENE,64,13.0,13.0,59,0.00,,,0.00,0.00,VWS V14.01,2013-02-16 20:36:00,
2013-02-16 15:37:00,21.9,9.4,30.10,NE,44,7.0,10.0,58,0.00,,,0.00,0.00,VWS V14.01,2013-02-16 20:37:00,
2013-02-16 15:39:00,21.8,9.7,30.10,NNE,26,11.0,13.0,59,0.00,,,0.00,0.00,VWS V14.01,2013-02-16 20:39:00,
2013-02-16 15:40:00,21.8,9.3,30.10,ENE,63,15.0,15.0,58,0.00,,,0.00,0.00,VWS V14.01,2013-02-16 20:40:00,
2013-02-16 15:41:00,22.0,9.5,30.10,NE,37,10.0,13.0,58,0.00,,,0.00,0.00,VWS V14.01,2013-02-16 20:41:00,
2013-02-16 15:42:00,22.1,9.6,30.10,NNE,33,4.0,9.0,58,0.00,,,0.00,0.00,VWS V14.01,2013-02-16 20:42:00,
2013-02-16 15:44:00,22.3,9.8,30.10,ENE,61,11.0,11.0,58,0.00,,,0.00,0.00,VWS V14.01,2013-02-16 20:44:00,
2013-02-16 15:45:00,22.4,9.9,30.10,NE,38,11.0,11.0,58,0.00,,,0.00,0.00,VWS V14.01,2013-02-16 20:45:00,
2013-02-16 15:46:00,22.5,9.6,30.10,North,5,7.0,9.0,57,0.00,,,0.00,0.00,VWS V14.01,2013-02-16 20:46:00,
2013-02-16 15:48:00,22.7,9.8,30.10,NE,53,7.0,7.0,57,0.00,,,0.00,0.00,VWS V14.01,2013-02-16 20:48:00,
2013-02-16 15:49:00,22.8,9.9,30.10,North,9,5.0,9.0,57,0.00,,,0.00,0.00,VWS V14.01,2013-02-16 20:49:00,
2013-02-16 15:50:00,22.9,10.0,30.10,NNW,345,9.0,12.0,57,0.00,,,0.00,0.00,VWS V14.01,2013-02-16 20:50:00,
2013-02-16 15:51:00,22.9,10.0,30.10,NNE,17,8.0,13.0,57,0.00,,,0.00,0.00,VWS V14.01,2013-02-16 20:51:00,
2013-02-16 15:53:00,22.9,9.6,30.10,NE,38,6.0,10.0,56,0.00,,,0.00,0.00,VWS V14.01,2013-02-16 20:53:00,
2013-02-16 15:54:00,22.9,9.6,30.10,NNE,21,5.0,11.0,56,0.00,,,0.00,0.00,VWS V14.01,2013-02-16 20:54:00,
2013-02-16 15:55:00,22.9,9.6,30.10,NE,42,11.0,15.0,56,0.00,,,0.00,0.00,VWS V14.01,2013-02-16 20:55:00,
2013-02-16 15:56:00,22.9,9.6,30.10,North,360,7.0,7.0,56,0.00,,,0.00,0.00,VWS V14.01,2013-02-16 20:56:00,
2013-02-16 15:58:00,22.8,8.7,30.10,North,5,7.0,12.0,54,0.00,,,0.00,0.00,VWS V14.01,2013-02-16 20:58:00,
2013-02-16 15:59:00,22.6,8.9,30.10,NNE,23,7.0,7.0,55,0.00,,,0.00,0.00,VWS V14.01,2013-02-16 20:59:00,
2013-02-16 16:00:00,22.5,8.8,30.10,NNE,13,4.0,8.0,55,0.00,,,0.00,0.00,VWS V14.01,2013-02-16 21:00:00,
2013-02-16 16:01:00,22.5,8.8,30.10,NE,38,5.0,6.0,55,0.00,,,0.00,0.00,VWS V14.01,2013-02-16 21:01:00,
2013-02-16 16:03:00,22.5,8.8,30.10,NE,42,6.0,10.0,55,0.00,,,0.00,0.00,VWS V14.01,2013-02-16 21:03:00,
2013-02-16 16:05:00,22.5,8.8,30.10,NNE,12,6.0,12.0,55,0.00,,,0.00,0.00,VWS V14.01,2013-02-16 21:05:00,
2013-02-16 16:06:00,22.4,9.1,30.11,North,360,14.0,14.0,56,0.00,,,0.00,0.00,VWS V14.01,2013-02-16 21:06:00,
2013-02-16 16:08:00,22.2,8.9,30.11,NNE,14,5.0,13.0,56,0.00,,,0.00,0.00,VWS V14.01,2013-02-16 21:08:00,
2013-02-16 16:10:00,22.0,8.7,30.11,NNE,32,11.0,12.0,56,0.00,,,0.00,0.00,VWS V14.01,2013-02-16 21:10:00,
2013-02-16 16:11:00,21.9,8.6,30.11,NNE,13,5.0,13.0,56,0.00,,,0.00,0.00,VWS V14.01,2013-02-16 21:11:00,
2013-02-16 16:13:00,22.0,8.7,30.11,NNE,26,7.0,17.0,56,0.00,,,0.00,0.00,VWS V14.01,2013-02-16 21:13:00,
2013-02-16 16:15:00,22.2,8.9,30.11,NNE,14,7.0,11.0,56,0.00,,,0.00,0.00,VWS V14.01,2013-02-16 21:15:00,
2013-02-16 16:16:00,22.3,8.6,30.11,NE,38,5.0,11.0,55,0.00,,,0.00,0.00,VWS V14.01,2013-02-16 21:16:00,
2013-02-16 16:18:00,22.4,8.3,30.11,NNE,12,6.0,7.0,54,0.00,,,0.00,0.00,VWS V14.01,2013-02-16 21:18:00,
2013-02-16 16:20:00,22.3,8.2,30.11,NNE,29,3.0,6.0,54,0.00,,,0.00,0.00,VWS V14.01,2013-02-16 21:20:00,
2013-02-16 16:21:00,22.3,8.6,30.11,NE,54,11.0,13.0,55,0.00,,,0.00,0.00,VWS V14.01,2013-02-16 21:21:00,
2013-02-16 16:23:00,22.1,8.4,30.11,NE,55,9.0,10.0,55,0.00,,,0.00,0.00,VWS V14.01,2013-02-16 21:23:00,
2013-02-16 16:25:00,22.0,8.3,30.11,NNE,29,10.0,12.0,55,0.00,,,0.00,0.00,VWS V14.01,2013-02-16 21:25:00,
2013-02-16 16:27:00,21.8,8.5,30.11,NNW,338,10.0,11.0,56,0.00,,,0.00,0.00,VWS V14.01,2013-02-16 21:27:00,
2013-02-16 16:28:00,21.7,8.4,30.11,NNE,17,5.0,5.0,56,0.00,,,0.00,0.00,VWS V14.01,2013-02-16 21:28:00,
2013-02-16 16:30:00,21.6,8.7,30.11,North,355,6.0,14.0,57,0.00,,,0.00,0.00,VWS V14.01,2013-02-16 21:30:00,
2013-02-16 16:32:00,21.4,8.9,30.11,NNE,25,5.0,7.0,58,0.00,,,0.00,0.00,VWS V14.01,2013-02-16 21:32:00,
2013-02-16 16:33:00,21.3,8.8,30.11,NE,39,5.0,6.0,58,0.00,,,0.00,0.00,VWS V14.01,2013-02-16 21:33:00,
2013-02-16 16:35:00,21.2,8.7,30.11,NE,34,6.0,12.0,58,0.00,,,0.00,0.00,VWS V14.01,2013-02-16 21:35:00,
2013-02-16 16:37:00,21.1,8.6,30.11,NE,45,11.0,11.0,58,0.00,,,0.00,0.00,VWS V14.01,2013-02-16 21:37:00,
2013-02-16 16:38:00,21.1,9.0,30.11,NE,50,11.0,11.0,59,0.00,,,0.00,0.00,VWS V14.01,2013-02-16 21:38:00,
2013-02-16 16:40:00,21.1,8.6,30.11,NE,34,8.0,11.0,58,0.00,,,0.00,0.00,VWS V14.01,2013-02-16 21:40:00,
2013-02-16 16:42:00,21.1,9.0,30.11,NNE,26,6.0,12.0,59,0.00,,,0.00,0.00,VWS V14.01,2013-02-16 21:42:00,
2013-02-16 16:43:00,21.1,9.0,30.11,NE,37,6.0,6.0,59,0.00,,,0.00,0.00,VWS V14.01,2013-02-16 21:43:00,
2013-02-16 16:45:00,21.1,9.0,30.11,NNE,22,4.0,9.0,59,0.00,,,0.00,0.00,VWS V14.01,2013-02-16 21:45:00,
2013-02-16 16:47:00,21.1,9.0,30.11,NNE,22,4.0,12.0,59,0.00,,,0.00,0.00,VWS V14.01,2013-02-16 21:47:00,
2013-02-16 16:48:00,21.1,9.0,30.11,NE,38,1.0,2.0,59,0.00,,,0.00,0.00,VWS V14.01,2013-02-16 21:48:00,
2013-02-16 16:50:00,21.2,9.1,30.11,NE,46,5.0,9.0,59,0.00,,,0.00,0.00,VWS V14.01,2013-02-16 21:50:00,
2013-02-16 16:52:00,21.2,9.1,30.11,NNE,22,5.0,9.0,59,0.00,,,0.00,0.00,VWS V14.01,2013-02-16 21:52:00,
2013-02-16 16:53:00,21.2,8.7,30.11,NE,35,5.0,5.0,58,0.00,,,0.00,0.00,VWS V14.01,2013-02-16 21:53:00,
2013-02-16 16:55:00,21.2,8.4,30.11,NE,47,5.0,10.0,57,0.00,,,0.00,0.00,VWS V14.01,2013-02-16 21:55:00,
2013-02-16 16:57:00,21.1,8.3,30.11,North,5,8.0,12.0,57,0.00,,,0.00,0.00,VWS V14.01,2013-02-16 21:57:00,
2013-02-16 16:58:00,21.1,8.3,30.11,North,11,5.0,8.0,57,0.00,,,0.00,0.00,VWS V14.01,2013-02-16 21:58:00,
2013-02-16 17:00:00,21.1,9.0,30.11,NNE,19,5.0,13.0,59,0.00,,,0.00,0.00,VWS V14.01,2013-02-16 22:00:00,
2013-02-16 17:02:00,21.1,9.0,30.11,NNE,26,7.0,7.0,59,0.00,,,0.00,0.00,VWS V14.01,2013-02-16 22:02:00,
2013-02-16 17:03:00,21.1,9.0,30.11,NNE,12,4.0,8.0,59,0.00,,,0.00,0.00,VWS V14.01,2013-02-16 22:03:00,
2013-02-16 17:05:00,21.1,9.0,30.11,NE,40,4.0,6.0,59,0.00,,,0.00,0.00,VWS V14.01,2013-02-16 22:05:00,
2013-02-16 17:07:00,21.1,9.0,30.11,NE,50,6.0,9.0,59,0.00,,,0.00,0.00,VWS V14.01,2013-02-16 22:07:00,
2013-02-16 17:08:00,21.1,9.0,30.11,NNE,24,6.0,10.0,59,0.00,,,0.00,0.00,VWS V14.01,2013-02-16 22:08:00,
2013-02-16 17:10:00,21.0,8.6,30.11,NNE,33,8.0,10.0,58,0.00,,,0.00,0.00,VWS V14.01,2013-02-16 22:10:00,
2013-02-16 17:12:00,20.9,8.5,30.11,NNE,33,11.0,11.0,58,0.00,,,0.00,0.00,VWS V14.01,2013-02-16 22:12:00,
2013-02-16 17:13:00,20.8,8.4,30.12,NNE,24,4.0,9.0,58,0.00,,,0.00,0.00,VWS V14.01,2013-02-16 22:13:00,
2013-02-16 17:15:00,20.7,7.9,30.11,NE,34,6.0,13.0,57,0.00,,,0.00,0.00,VWS V14.01,2013-02-16 22:15:00,
2013-02-16 17:17:00,20.7,7.9,30.12,North,350,4.0,5.0,57,0.00,,,0.00,0.00,VWS V14.01,2013-02-16 22:17:00,
2013-02-16 17:18:00,20.7,7.9,30.12,North,355,5.0,6.0,57,0.00,,,0.00,0.00,VWS V14.01,2013-02-16 22:18:00,
2013-02-16 17:20:00,20.7,7.9,30.12,NE,43,3.0,5.0,57,0.00,,,0.00,0.00,VWS V14.01,2013-02-16 22:20:00,
2013-02-16 17:22:00,20.8,8.4,30.12,NNE,28,3.0,8.0,58,0.00,,,0.00,0.00,VWS V14.01,2013-02-16 22:22:00,
2013-02-16 17:23:00,20.8,8.4,30.12,North,10,6.0,11.0,58,0.00,,,0.00,0.00,VWS V14.01,2013-02-16 22:23:00,
2013-02-16 17:25:00,20.8,8.4,30.12,NNE,33,9.0,9.0,58,0.00,,,0.00,0.00,VWS V14.01,2013-02-16 22:25:00,
2013-02-16 17:27:00,20.8,8.4,30.12,North,360,4.0,4.0,58,0.00,,,0.00,0.00,VWS V14.01,2013-02-16 22:27:00,
2013-02-16 17:28:00,20.8,8.4,30.12,North,351,4.0,6.0,58,0.00,,,0.00,0.00,VWS V14.01,2013-02-16 22:28:00,
2013-02-16 17:30:00,20.8,8.0,30.12,NNE,17,4.0,4.0,57,0.00,,,0.00,0.00,VWS V14.01,2013-02-16 22:30:00,
2013-02-16 17:32:00,20.8,8.4,30.12,NNE,22,3.0,6.0,58,0.00,,,0.00,0.00,VWS V14.01,2013-02-16 22:32:00,
2013-02-16 17:33:00,20.9,8.5,30.12,NE,40,8.0,8.0,58,0.00,,,0.00,0.00,VWS V14.01,2013-02-16 22:33:00,
2013-02-16 17:35:00,20.9,8.8,30.12,NNE,20,5.0,5.0,59,0.00,,,0.00,0.00,VWS V14.01,2013-02-16 22:35:00,
2013-02-16 17:37:00,20.9,8.8,30.12,ENE,63,7.0,7.0,59,0.00,,,0.00,0.00,VWS V14.01,2013-02-16 22:37:00,
2013-02-16 17:38:00,20.9,9.2,30.12,NE,48,8.0,8.0,60,0.00,,,0.00,0.00,VWS V14.01,2013-02-16 22:38:00,
2013-02-16 17:40:00,20.8,9.1,30.12,NE,38,4.0,7.0,60,0.00,,,0.00,0.00,VWS V14.01,2013-02-16 22:40:00,
2013-02-16 17:42:00,20.7,9.0,30.12,NE,46,2.0,5.0,60,0.00,,,0.00,0.00,VWS V14.01,2013-02-16 22:42:00,
2013-02-16 17:43:00,20.7,9.4,30.12,NE,40,2.0,7.0,61,0.00,,,0.00,0.00,VWS V14.01,2013-02-16 22:43:00,
2013-02-16 17:46:00,20.6,9.7,30.12,NNE,33,3.0,7.0,62,0.00,,,0.00,0.00,VWS V14.01,2013-02-16 22:46:00,
2013-02-16 17:47:00,20.6,9.7,30.12,NE,42,3.0,7.0,62,0.00,,,0.00,0.00,VWS V14.01,2013-02-16 22:47:00,
2013-02-16 17:48:00,20.6,9.7,30.12,NNE,30,4.0,5.0,62,0.00,,,0.00,0.00,VWS V14.01,2013-02-16 22:48:00,
2013-02-16 17:50:00,20.5,9.9,30.12,NE,42,6.0,10.0,63,0.00,,,0.00,0.00,VWS V14.01,2013-02-16 22:50:00,
2013-02-16 17:51:00,20.5,9.9,30.12,ENE,64,8.0,10.0,63,0.00,,,0.00,0.00,VWS V14.01,2013-02-16 22:51:00,
2013-02-16 17:52:00,20.4,9.5,30.12,NNE,32,9.0,10.0,62,0.00,,,0.00,0.00,VWS V14.01,2013-02-16 22:52:00,
2013-02-16 17:53:00,20.4,9.1,30.12,NE,47,8.0,10.0,61,0.00,,,0.00,0.00,VWS V14.01,2013-02-16 22:53:00,
2013-02-16 17:56:00,20.2,8.9,30.12,ENE,61,8.0,8.0,61,0.00,,,0.00,0.00,VWS V14.01,2013-02-16 22:56:00,
2013-02-16 17:57:00,20.1,9.2,30.12,NNE,27,5.0,10.0,62,0.00,,,0.00,0.00,VWS V14.01,2013-02-16 22:57:00,
2013-02-16 17:58:00,20.0,9.1,30.12,NE,55,6.0,8.0,62,0.00,,,0.00,0.00,VWS V14.01,2013-02-16 22:58:00,
2013-02-16 18:01:00,20.0,9.4,30.12,NE,47,5.0,5.0,63,0.00,,,0.00,0.00,VWS V14.01,2013-02-16 23:01:00,
2013-02-16 18:02:00,19.9,9.4,30.12,NE,46,4.0,11.0,63,0.00,,,0.00,0.00,VWS V14.01,2013-02-16 23:02:00,
2013-02-16 18:03:00,19.9,9.4,30.13,NE,53,7.0,7.0,63,0.00,,,0.00,0.00,VWS V14.01,2013-02-16 23:03:00,
2013-02-16 18:06:00,19.9,9.4,30.13,NE,35,5.0,8.0,63,0.00,,,0.00,0.00,VWS V14.01,2013-02-16 23:06:00,
2013-02-16 18:07:00,19.9,9.4,30.13,NNW,345,4.0,7.0,63,0.00,,,0.00,0.00,VWS V14.01,2013-02-16 23:07:00,
2013-02-16 18:08:00,19.9,9.4,30.13,NE,44,2.0,7.0,63,0.00,,,0.00,0.00,VWS V14.01,2013-02-16 23:08:00,
2013-02-16 18:11:00,20.0,9.4,30.13,NNE,32,5.0,5.0,63,0.00,,,0.00,0.00,VWS V14.01,2013-02-16 23:11:00,
2013-02-16 18:12:00,20.0,9.4,30.13,North,355,3.0,5.0,63,0.00,,,0.00,0.00,VWS V14.01,2013-02-16 23:12:00,
2013-02-16 18:13:00,20.0,9.4,30.13,NE,38,2.0,7.0,63,0.00,,,0.00,0.00,VWS V14.01,2013-02-16 23:13:00,
2013-02-16 18:16:00,20.0,9.4,30.13,ENE,57,4.0,7.0,63,0.00,,,0.00,0.00,VWS V14.01,2013-02-16 23:16:00,
2013-02-16 18:17:00,20.0,9.4,30.13,NE,51,3.0,7.0,63,0.00,,,0.00,0.00,VWS V14.01,2013-02-16 23:17:00,
2013-02-16 18:18:00,20.0,9.4,30.13,NE,49,4.0,7.0,63,0.00,,,0.00,0.00,VWS V14.01,2013-02-16 23:18:00,
2013-02-16 18:21:00,19.9,9.4,30.13,NE,38,5.0,6.0,63,0.00,,,0.00,0.00,VWS V14.01,2013-02-16 23:21:00,
2013-02-16 18:22:00,19.9,9.4,30.13,NNE,26,6.0,6.0,63,0.00,,,0.00,0.00,VWS V14.01,2013-02-16 23:22:00,
2013-02-16 18:23:00,19.8,9.3,30.13,NE,40,3.0,4.0,63,0.00,,,0.00,0.00,VWS V14.01,2013-02-16 23:23:00,
2013-02-16 18:26:00,19.8,9.6,30.13,NE,38,5.0,7.0,64,0.00,,,0.00,0.00,VWS V14.01,2013-02-16 23:26:00,
2013-02-16 18:28:00,19.7,9.5,30.13,NE,40,2.0,3.0,64,0.00,,,0.00,0.00,VWS V14.01,2013-02-16 23:28:00,
2013-02-16 18:31:00,19.7,9.9,30.13,NE,46,3.0,6.0,65,0.00,,,0.00,0.00,VWS V14.01,2013-02-16 23:31:00,
2013-02-16 18:33:00,19.7,9.9,30.13,NE,42,3.0,4.0,65,0.00,,,0.00,0.00,VWS V14.01,2013-02-16 23:33:00,
2013-02-16 18:36:00,19.6,9.4,30.13,NE,37,3.0,4.0,64,0.00,,,0.00,0.00,VWS V14.01,2013-02-16 23:36:00,
2013-02-16 18:38:00,19.6,9.8,30.13,NE,45,2.0,3.0,65,0.00,,,0.00,0.00,VWS V14.01,2013-02-16 23:38:00,
2013-02-16 18:41:00,19.6,9.4,30.14,NE,55,2.0,5.0,64,0.00,,,0.00,0.00,VWS V14.01,2013-02-16 23:41:00,
2013-02-16 18:43:00,19.7,9.5,30.14,NE,48,3.0,3.0,64,0.00,,,0.00,0.00,VWS V14.01,2013-02-16 23:43:00,
2013-02-16 18:46:00,19.7,9.9,30.14,NNE,28,3.0,8.0,65,0.00,,,0.00,0.00,VWS V14.01,2013-02-16 23:46:00,
2013-02-16 18:48:00,19.7,9.9,30.14,NE,38,10.0,10.0,65,0.00,,,0.00,0.00,VWS V14.01,2013-02-16 23:48:00,
2013-02-16 18:49:00,19.7,9.9,30.14,NNE,23,3.0,10.0,65,0.00,,,0.00,0.00,VWS V14.01,2013-02-16 23:49:00,
2013-02-16 18:51:00,19.7,9.9,30.14,NE,42,2.0,6.0,65,0.00,,,0.00,0.00,VWS V14.01,2013-02-16 23:51:00,
2013-02-16 18:53:00,19.7,9.9,30.14,NNE,25,4.0,4.0,65,0.00,,,0.00,0.00,VWS V14.01,2013-02-16 23:53:00,
2013-02-16 18:54:00,19.8,9.9,30.14,NNE,33,2.0,5.0,65,0.00,,,0.00,0.00,VWS V14.01,2013-02-16 23:54:00,
2013-02-16 18:56:00,19.7,9.9,30.14,North,5,1.0,2.0,65,0.00,,,0.00,0.00,VWS V14.01,2013-02-16 23:56:00,
2013-02-16 18:58:00,19.7,10.2,30.14,NNE,27,3.0,5.0,66,0.00,,,0.00,0.00,VWS V14.01,2013-02-16 23:58:00,
2013-02-16 18:59:00,19.7,10.2,30.14,NNE,23,3.0,5.0,66,0.00,,,0.00,0.00,VWS V14.01,2013-02-16 23:59:00,
2013-02-16 19:01:00,19.7,10.2,30.14,NE,49,3.0,8.0,66,0.00,,,0.00,0.00,VWS V14.01,2013-02-17 00:01:00,
2013-02-16 19:03:00,19.7,10.5,30.15,NNE,17,3.0,3.0,67,0.00,,,0.00,0.00,VWS V14.01,2013-02-17 00:03:00,
2013-02-16 19:04:00,19.6,10.4,30.15,NNE,13,4.0,5.0,67,0.00,,,0.00,0.00,VWS V14.01,2013-02-17 00:04:00,
2013-02-16 19:06:00,19.5,10.7,30.15,NNE,24,6.0,9.0,68,0.00,,,0.00,0.00,VWS V14.01,2013-02-17 00:06:00,
2013-02-16 19:08:00,19.4,10.9,30.15,NNE,13,3.0,5.0,69,0.00,,,0.00,0.00,VWS V14.01,2013-02-17 00:08:00,
2013-02-16 19:09:00,19.4,10.9,30.15,NNE,28,5.0,9.0,69,0.00,,,0.00,0.00,VWS V14.01,2013-02-17 00:09:00,
2013-02-16 19:11:00,19.3,10.8,30.15,NE,37,6.0,6.0,69,0.00,,,0.00,0.00,VWS V14.01,2013-02-17 00:11:00,
2013-02-16 19:12:00,19.3,11.1,30.15,NE,44,2.0,6.0,70,0.00,,,0.00,0.00,VWS V14.01,2013-02-17 00:12:00,
2013-02-16 19:13:00,19.2,11.0,30.15,NNE,14,4.0,4.0,70,0.00,,,0.00,0.00,VWS V14.01,2013-02-17 00:13:00,
2013-02-16 19:14:00,19.2,11.0,30.15,North,360,6.0,6.0,70,0.00,,,0.00,0.00,VWS V14.01,2013-02-17 00:14:00,
2013-02-16 19:16:00,19.1,10.9,30.14,North,11,1.0,4.0,70,0.00,,,0.00,0.00,VWS V14.01,2013-02-17 00:16:00,
2013-02-16 19:17:00,19.1,10.9,30.14,North,360,2.0,4.0,70,0.00,,,0.00,0.00,VWS V14.01,2013-02-17 00:17:00,
2013-02-16 19:18:00,19.0,10.8,30.14,NNE,31,3.0,4.0,70,0.00,,,0.00,0.00,VWS V14.01,2013-02-17 00:18:00,
2013-02-16 19:19:00,19.0,11.2,30.14,NNE,32,3.0,5.0,71,0.00,,,0.00,0.00,VWS V14.01,2013-02-17 00:19:00,
2013-02-16 19:21:00,19.0,11.2,30.15,NNE,32,0.0,4.0,71,0.00,,,0.00,0.00,VWS V14.01,2013-02-17 00:21:00,
2013-02-16 19:22:00,19.0,11.2,30.14,NNE,32,0.0,0.0,71,0.00,,,0.00,0.00,VWS V14.01,2013-02-17 00:22:00,
2013-02-16 19:23:00,19.0,11.2,30.14,NNE,32,0.0,2.0,71,0.00,,,0.00,0.00,VWS V14.01,2013-02-17 00:23:00,
2013-02-16 19:24:00,18.9,11.1,30.14,NNE,32,2.0,3.0,71,0.00,,,0.00,0.00,VWS V14.01,2013-02-17 00:24:00,
2013-02-16 19:26:00,18.9,11.1,30.14,NNE,32,1.0,3.0,71,0.00,,,0.00,0.00,VWS V14.01,2013-02-17 00:26:00,
2013-02-16 19:27:00,18.9,11.1,30.14,NNE,32,4.0,4.0,71,0.00,,,0.00,0.00,VWS V14.01,2013-02-17 00:27:00,
2013-02-16 19:28:00,18.8,10.6,30.14,NNE,32,0.0,1.0,70,0.00,,,0.00,0.00,VWS V14.01,2013-02-17 00:28:00,
2013-02-16 19:29:00,18.8,10.6,30.14,NNE,28,1.0,4.0,70,0.00,,,0.00,0.00,VWS V14.01,2013-02-17 00:29:00,
2013-02-16 19:31:00,18.8,10.6,30.14,NNE,28,2.0,2.0,70,0.00,,,0.00,0.00,VWS V14.01,2013-02-17 00:31:00,
2013-02-16 19:32:00,18.8,10.6,30.14,NNE,28,1.0,2.0,70,0.00,,,0.00,0.00,VWS V14.01,2013-02-17 00:32:00,
2013-02-16 19:33:00,18.8,10.6,30.14,NNE,28,0.0,0.0,70,0.00,,,0.00,0.00,VWS V14.01,2013-02-17 00:33:00,
2013-02-16 19:34:00,18.8,10.6,30.14,NNE,28,0.0,1.0,70,0.00,,,0.00,0.00,VWS V14.01,2013-02-17 00:34:00,
2013-02-16 19:36:00,18.8,10.6,30.14,NNE,28,0.0,0.0,70,0.00,,,0.00,0.00,VWS V14.01,2013-02-17 00:36:00,
2013-02-16 19:37:00,18.8,10.6,30.14,NNE,28,0.0,0.0,70,0.00,,,0.00,0.00,VWS V14.01,2013-02-17 00:37:00,
2013-02-16 19:38:00,18.8,11.0,30.14,NNE,28,0.0,0.0,71,0.00,,,0.00,0.00,VWS V14.01,2013-02-17 00:38:00,
2013-02-16 19:39:00,18.8,11.0,30.14,NNE,28,0.0,3.0,71,0.00,,,0.00,0.00,VWS V14.01,2013-02-17 00:39:00,
2013-02-16 19:41:00,18.8,11.0,30.14,NNE,28,0.0,0.0,71,0.00,,,0.00,0.00,VWS V14.01,2013-02-17 00:41:00,
2013-02-16 19:42:00,18.8,11.0,30.14,NNE,28,2.0,2.0,71,0.00,,,0.00,0.00,VWS V14.01,2013-02-17 00:42:00,
2013-02-16 19:43:00,18.8,11.0,30.14,NNE,28,0.0,0.0,71,0.00,,,0.00,0.00,VWS V14.01,2013-02-17 00:43:00,
2013-02-16 19:44:00,18.8,11.0,30.14,NNE,28,3.0,4.0,71,0.00,,,0.00,0.00,VWS V14.01,2013-02-17 00:44:00,
2013-02-16 19:46:00,18.7,10.9,30.14,NNE,28,0.0,4.0,71,0.00,,,0.00,0.00,VWS V14.01,2013-02-17 00:46:00,
2013-02-16 19:47:00,18.7,10.9,30.14,NNE,28,6.0,6.0,71,0.00,,,0.00,0.00,VWS V14.01,2013-02-17 00:47:00,
2013-02-16 19:48:00,18.7,10.9,30.14,NNE,33,4.0,4.0,71,0.00,,,0.00,0.00,VWS V14.01,2013-02-17 00:48:00,
2013-02-16 19:49:00,18.8,11.0,30.14,NE,36,4.0,6.0,71,0.00,,,0.00,0.00,VWS V14.01,2013-02-17 00:49:00,
2013-02-16 19:51:00,18.8,11.0,30.15,NE,36,4.0,4.0,71,0.00,,,0.00,0.00,VWS V14.01,2013-02-17 00:51:00,
2013-02-16 19:52:00,18.8,11.3,30.15,NE,36,1.0,4.0,72,0.00,,,0.00,0.00,VWS V14.01,2013-02-17 00:52:00,
2013-02-16 19:54:00,18.8,11.3,30.15,NE,35,1.0,5.0,72,0.00,,,0.00,0.00,VWS V14.01,2013-02-17 00:54:00,
2013-02-16 19:56:00,18.8,11.6,30.15,NE,35,2.0,2.0,73,0.00,,,0.00,0.00,VWS V14.01,2013-02-17 00:56:00,
2013-02-16 19:57:00,18.8,11.6,30.15,NE,35,1.0,3.0,73,0.00,,,0.00,0.00,VWS V14.01,2013-02-17 00:57:00,
2013-02-16 19:59:00,18.8,11.6,30.15,NNE,20,2.0,3.0,73,0.00,,,0.00,0.00,VWS V14.01,2013-02-17 00:59:00,
2013-02-16 20:01:00,18.8,11.6,30.15,NNE,28,2.0,3.0,73,0.00,,,0.00,0.00,VWS V14.01,2013-02-17 01:01:00,
2013-02-16 20:02:00,18.8,11.6,30.15,NNE,28,1.0,1.0,73,0.00,,,0.00,0.00,VWS V14.01,2013-02-17 01:02:00,
2013-02-16 20:04:00,18.8,11.6,30.15,NNE,29,2.0,3.0,73,0.00,,,0.00,0.00,VWS V14.01,2013-02-17 01:04:00,
2013-02-16 20:06:00,18.8,11.6,30.15,NNE,29,0.0,1.0,73,0.00,,,0.00,0.00,VWS V14.01,2013-02-17 01:06:00,
2013-02-16 20:07:00,18.8,11.6,30.15,NNE,29,0.0,1.0,73,0.00,,,0.00,0.00,VWS V14.01,2013-02-17 01:07:00,
2013-02-16 20:09:00,18.8,11.6,30.15,NNE,29,0.0,1.0,73,0.00,,,0.00,0.00,VWS V14.01,2013-02-17 01:09:00,
2013-02-16 20:11:00,18.9,12.0,30.15,NE,40,4.0,4.0,74,0.00,,,0.00,0.00,VWS V14.01,2013-02-17 01:11:00,
2013-02-16 20:12:00,18.9,12.0,30.15,NNE,32,3.0,5.0,74,0.00,,,0.00,0.00,VWS V14.01,2013-02-17 01:12:00,
2013-02-16 20:14:00,18.9,11.7,30.15,NE,35,2.0,4.0,73,0.00,,,0.00,0.00,VWS V14.01,2013-02-17 01:14:00,
2013-02-16 20:15:00,18.9,11.7,30.15,NE,35,3.0,3.0,73,0.00,,,0.00,0.00,VWS V14.01,2013-02-17 01:15:00,
2013-02-16 20:16:00,18.9,11.7,30.15,NE,35,3.0,3.0,73,0.00,,,0.00,0.00,VWS V14.01,2013-02-17 01:16:00,
2013-02-16 20:17:00,18.9,11.7,30.15,NE,34,2.0,2.0,73,0.00,,,0.00,0.00,VWS V14.01,2013-02-17 01:17:00,
2013-02-16 20:19:00,18.9,11.7,30.15,NE,34,2.0,5.0,73,0.00,,,0.00,0.00,VWS V14.01,2013-02-17 01:19:00,
2013-02-16 20:20:00,18.9,11.4,30.15,NE,41,2.0,3.0,72,0.00,,,0.00,0.00,VWS V14.01,2013-02-17 01:20:00,
2013-02-16 20:21:00,18.9,11.4,30.15,NE,38,3.0,5.0,72,0.00,,,0.00,0.00,VWS V14.01,2013-02-17 01:21:00,
2013-02-16 20:22:00,18.9,11.4,30.15,NE,38,1.0,3.0,72,0.00,,,0.00,0.00,VWS V14.01,2013-02-17 01:22:00,
2013-02-16 20:24:00,18.9,11.4,30.15,NE,39,3.0,3.0,72,0.00,,,0.00,0.00,VWS V14.01,2013-02-17 01:24:00,
2013-02-16 20:25:00,18.9,11.4,30.15,NE,38,1.0,2.0,72,0.00,,,0.00,0.00,VWS V14.01,2013-02-17 01:25:00,
2013-02-16 20:26:00,18.9,11.4,30.15,NE,38,0.0,0.0,72,0.00,,,0.00,0.00,VWS V14.01,2013-02-17 01:26:00,
2013-02-16 20:27:00,18.9,11.7,30.15,NE,38,0.0,1.0,73,0.00,,,0.00,0.00,VWS V14.01,2013-02-17 01:27:00,
2013-02-16 20:29:00,18.9,11.7,30.15,NE,38,4.0,4.0,73,0.00,,,0.00,0.00,VWS V14.01,2013-02-17 01:29:00,
2013-02-16 20:30:00,18.9,11.7,30.15,NE,37,0.0,1.0,73,0.00,,,0.00,0.00,VWS V14.01,2013-02-17 01:30:00,
2013-02-16 20:31:00,19.0,11.8,30.15,NE,37,1.0,1.0,73,0.00,,,0.00,0.00,VWS V14.01,2013-02-17 01:31:00,
2013-02-16 20:32:00,19.0,11.8,30.15,NE,42,5.0,5.0,73,0.00,,,0.00,0.00,VWS V14.01,2013-02-17 01:32:00,
2013-02-16 20:34:00,18.9,11.7,30.15,NE,38,3.0,5.0,73,0.00,,,0.00,0.00,VWS V14.01,2013-02-17 01:34:00,
2013-02-16 20:35:00,19.0,11.5,30.15,NE,36,4.0,5.0,72,0.00,,,0.00,0.00,VWS V14.01,2013-02-17 01:35:00,
2013-02-16 20:36:00,19.0,11.5,30.15,NE,36,2.0,3.0,72,0.00,,,0.00,0.00,VWS V14.01,2013-02-17 01:36:00,
2013-02-16 20:37:00,19.0,11.5,30.15,NE,36,1.0,2.0,72,0.00,,,0.00,0.00,VWS V14.01,2013-02-17 01:37:00,
2013-02-16 20:39:00,19.0,11.5,30.15,NE,36,3.0,3.0,72,0.00,,,0.00,0.00,VWS V14.01,2013-02-17 01:39:00,
2013-02-16 20:40:00,19.0,11.5,30.15,NE,39,1.0,4.0,72,0.00,,,0.00,0.00,VWS V14.01,2013-02-17 01:40:00,
2013-02-16 20:41:00,19.0,11.5,30.14,NE,40,3.0,4.0,72,0.00,,,0.00,0.00,VWS V14.01,2013-02-17 01:41:00,
2013-02-16 20:43:00,19.0,11.5,30.14,NE,40,1.0,2.0,72,0.00,,,0.00,0.00,VWS V14.01,2013-02-17 01:43:00,
2013-02-16 20:44:00,19.0,11.5,30.14,NE,40,0.0,3.0,72,0.00,,,0.00,0.00,VWS V14.01,2013-02-17 01:44:00,
2013-02-16 20:45:00,19.0,11.5,30.14,NE,40,1.0,2.0,72,0.00,,,0.00,0.00,VWS V14.01,2013-02-17 01:45:00,
2013-02-16 20:46:00,19.0,11.5,30.15,NE,40,2.0,2.0,72,0.00,,,0.00,0.00,VWS V14.01,2013-02-17 01:46:00,
2013-02-16 20:48:00,19.0,11.8,30.15,NE,36,3.0,5.0,73,0.00,,,0.00,0.00,VWS V14.01,2013-02-17 01:48:00,
2013-02-16 20:49:00,19.0,11.8,30.14,NE,38,4.0,5.0,73,0.00,,,0.00,0.00,VWS V14.01,2013-02-17 01:49:00,
2013-02-16 20:50:00,19.0,11.5,30.14,NE,36,1.0,3.0,72,0.00,,,0.00,0.00,VWS V14.01,2013-02-17 01:50:00,
2013-02-16 20:51:00,19.0,11.5,30.14,NE,36,1.0,3.0,72,0.00,,,0.00,0.00,VWS V14.01,2013-02-17 01:51:00,
2013-02-16 20:53:00,19.0,11.5,30.14,NE,36,2.0,2.0,72,0.00,,,0.00,0.00,VWS V14.01,2013-02-17 01:53:00,
2013-02-16 20:54:00,19.0,11.5,30.14,NE,36,0.0,2.0,72,0.00,,,0.00,0.00,VWS V14.01,2013-02-17 01:54:00,
2013-02-16 20:55:00,19.0,11.2,30.15,NNE,32,3.0,3.0,71,0.00,,,0.00,0.00,VWS V14.01,2013-02-17 01:55:00,
2013-02-16 20:56:00,19.0,11.2,30.14,NE,35,1.0,3.0,71,0.00,,,0.00,0.00,VWS V14.01,2013-02-17 01:56:00,
2013-02-16 20:58:00,19.0,11.2,30.14,NE,35,0.0,2.0,71,0.00,,,0.00,0.00,VWS V14.01,2013-02-17 01:58:00,
2013-02-16 20:59:00,18.9,11.1,30.15,NE,35,0.0,3.0,71,0.00,,,0.00,0.00,VWS V14.01,2013-02-17 01:59:00,
2013-02-16 21:00:00,18.9,11.1,30.15,NE,41,3.0,3.0,71,0.00,,,0.00,0.00,VWS V14.01,2013-02-17 02:00:00,
2013-02-16 21:01:00,18.9,11.1,30.15,NE,44,1.0,6.0,71,0.00,,,0.00,0.00,VWS V14.01,2013-02-17 02:01:00,
2013-02-16 21:03:00,18.9,11.4,30.15,NE,44,2.0,4.0,72,0.00,,,0.00,0.00,VWS V14.01,2013-02-17 02:03:00,
2013-02-16 21:04:00,18.9,11.4,30.15,ENE,64,3.0,7.0,72,0.00,,,0.00,0.00,VWS V14.01,2013-02-17 02:04:00,
2013-02-16 21:05:00,18.9,11.4,30.15,ENE,58,2.0,5.0,72,0.00,,,0.00,0.00,VWS V14.01,2013-02-17 02:05:00,
2013-02-16 21:06:00,18.9,11.4,30.15,NE,49,5.0,5.0,72,0.00,,,0.00,0.00,VWS V14.01,2013-02-17 02:06:00,
2013-02-16 21:08:00,18.9,11.7,30.15,NE,48,0.0,1.0,73,0.00,,,0.00,0.00,VWS V14.01,2013-02-17 02:08:00,
2013-02-16 21:09:00,19.0,11.8,30.15,NE,49,3.0,3.0,73,0.00,,,0.00,0.00,VWS V14.01,2013-02-17 02:09:00,
2013-02-16 21:10:00,19.0,11.5,30.15,NNE,33,5.0,5.0,72,0.00,,,0.00,0.00,VWS V14.01,2013-02-17 02:10:00,
2013-02-16 21:12:00,19.0,11.5,30.15,NE,38,2.0,6.0,72,0.00,,,0.00,0.00,VWS V14.01,2013-02-17 02:12:00,
2013-02-16 21:13:00,19.0,11.2,30.15,NE,44,3.0,3.0,71,0.00,,,0.00,0.00,VWS V14.01,2013-02-17 02:13:00,
2013-02-16 21:14:00,19.0,11.2,30.15,NE,44,0.0,3.0,71,0.00,,,0.00,0.00,VWS V14.01,2013-02-17 02:14:00,
2013-02-16 21:15:00,19.0,11.5,30.15,NE,44,2.0,3.0,72,0.00,,,0.00,0.00,VWS V14.01,2013-02-17 02:15:00,
2013-02-16 21:17:00,19.0,11.5,30.15,NE,44,2.0,3.0,72,0.00,,,0.00,0.00,VWS V14.01,2013-02-17 02:17:00,
2013-02-16 21:18:00,18.9,11.4,30.15,NE,44,1.0,3.0,72,0.00,,,0.00,0.00,VWS V14.01,2013-02-17 02:18:00,
2013-02-16 21:19:00,18.9,11.4,30.15,NE,44,0.0,1.0,72,0.00,,,0.00,0.00,VWS V14.01,2013-02-17 02:19:00,
2013-02-16 21:20:00,18.9,11.7,30.15,NE,44,0.0,0.0,73,0.00,,,0.00,0.00,VWS V14.01,2013-02-17 02:20:00,
2013-02-16 21:22:00,18.9,11.7,30.15,NE,44,0.0,1.0,73,0.00,,,0.00,0.00,VWS V14.01,2013-02-17 02:22:00,
2013-02-16 21:23:00,18.9,11.7,30.15,ENE,63,1.0,3.0,73,0.00,,,0.00,0.00,VWS V14.01,2013-02-17 02:23:00,
2013-02-16 21:24:00,18.9,11.7,30.15,ENE,63,2.0,2.0,73,0.00,,,0.00,0.00,VWS V14.01,2013-02-17 02:24:00,
2013-02-16 21:25:00,18.9,11.7,30.15,ENE,63,1.0,1.0,73,0.00,,,0.00,0.00,VWS V14.01,2013-02-17 02:25:00,
2013-02-16 21:27:00,18.9,12.0,30.15,ENE,63,0.0,0.0,74,0.00,,,0.00,0.00,VWS V14.01,2013-02-17 02:27:00,
2013-02-16 21:28:00,18.9,12.0,30.15,ENE,63,1.0,1.0,74,0.00,,,0.00,0.00,VWS V14.01,2013-02-17 02:28:00,
2013-02-16 21:29:00,18.9,12.0,30.15,ENE,63,1.0,1.0,74,0.00,,,0.00,0.00,VWS V14.01,2013-02-17 02:29:00,
2013-02-16 21:30:00,18.9,11.7,30.15,ENE,63,0.0,2.0,73,0.00,,,0.00,0.00,VWS V14.01,2013-02-17 02:30:00,
2013-02-16 21:32:00,18.9,11.7,30.15,ENE,63,3.0,3.0,73,0.00,,,0.00,0.00,VWS V14.01,2013-02-17 02:32:00,
2013-02-16 21:33:00,18.8,11.6,30.15,ENE,61,2.0,2.0,73,0.00,,,0.00,0.00,VWS V14.01,2013-02-17 02:33:00,
2013-02-16 21:34:00,18.8,11.6,30.15,NE,55,3.0,4.0,73,0.00,,,0.00,0.00,VWS V14.01,2013-02-17 02:34:00,
2013-02-16 21:35:00,18.8,11.6,30.15,NE,56,2.0,3.0,73,0.00,,,0.00,0.00,VWS V14.01,2013-02-17 02:35:00,
2013-02-16 21:37:00,18.8,11.3,30.15,NNE,29,3.0,6.0,72,0.00,,,0.00,0.00,VWS V14.01,2013-02-17 02:37:00,
2013-02-16 21:38:00,18.8,11.3,30.15,NE,38,1.0,3.0,72,0.00,,,0.00,0.00,VWS V14.01,2013-02-17 02:38:00,
2013-02-16 21:39:00,18.8,11.3,30.15,NE,38,1.0,2.0,72,0.00,,,0.00,0.00,VWS V14.01,2013-02-17 02:39:00,
2013-02-16 21:40:00,18.8,11.3,30.15,NE,38,0.0,1.0,72,0.00,,,0.00,0.00,VWS V14.01,2013-02-17 02:40:00,
2013-02-16 21:42:00,18.7,11.5,30.15,NE,38,1.0,2.0,73,0.00,,,0.00,0.00,VWS V14.01,2013-02-17 02:42:00,
2013-02-16 21:44:00,18.7,11.5,30.15,NE,38,0.0,2.0,73,0.00,,,0.00,0.00,VWS V14.01,2013-02-17 02:44:00,
2013-02-16 21:45:00,18.7,11.5,30.15,NE,42,3.0,5.0,73,0.00,,,0.00,0.00,VWS V14.01,2013-02-17 02:45:00,
2013-02-16 21:47:00,18.7,11.5,30.15,NE,42,5.0,5.0,73,0.00,,,0.00,0.00,VWS V14.01,2013-02-17 02:47:00,
2013-02-16 21:49:00,18.7,11.5,30.15,NE,44,3.0,3.0,73,0.00,,,0.00,0.00,VWS V14.01,2013-02-17 02:49:00,
2013-02-16 21:51:00,18.6,11.4,30.15,NE,44,2.0,3.0,73,0.00,,,0.00,0.00,VWS V14.01,2013-02-17 02:51:00,
2013-02-16 21:52:00,18.6,11.4,30.15,NE,46,3.0,4.0,73,0.00,,,0.00,0.00,VWS V14.01,2013-02-17 02:52:00,
2013-02-16 21:54:00,18.6,11.1,30.15,ENE,58,1.0,4.0,72,0.00,,,0.00,0.00,VWS V14.01,2013-02-17 02:54:00,
2013-02-16 21:56:00,18.6,11.1,30.15,NE,51,3.0,5.0,72,0.00,,,0.00,0.00,VWS V14.01,2013-02-17 02:56:00,
2013-02-16 21:57:00,18.5,11.0,30.15,NE,42,2.0,5.0,72,0.00,,,0.00,0.00,VWS V14.01,2013-02-17 02:57:00,
2013-02-16 21:59:00,18.5,11.3,30.15,NE,38,2.0,6.0,73,0.00,,,0.00,0.00,VWS V14.01,2013-02-17 02:59:00,
2013-02-16 22:01:00,18.5,11.3,30.16,NE,39,1.0,4.0,73,0.00,,,0.00,0.00,VWS V14.01,2013-02-17 03:01:00,
2013-02-16 22:02:00,18.4,11.2,30.16,NE,39,1.0,2.0,73,0.00,,,0.00,0.00,VWS V14.01,2013-02-17 03:02:00,
2013-02-16 22:04:00,18.4,11.2,30.15,NE,53,3.0,4.0,73,0.00,,,0.00,0.00,VWS V14.01,2013-02-17 03:04:00,
2013-02-16 22:06:00,18.4,11.2,30.16,NE,42,1.0,3.0,73,0.00,,,0.00,0.00,VWS V14.01,2013-02-17 03:06:00,
2013-02-16 22:07:00,18.4,11.2,30.16,NE,42,1.0,2.0,73,0.00,,,0.00,0.00,VWS V14.01,2013-02-17 03:07:00,
2013-02-16 22:09:00,18.3,11.1,30.16,NE,35,1.0,4.0,73,0.00,,,0.00,0.00,VWS V14.01,2013-02-17 03:09:00,
2013-02-16 22:11:00,18.3,11.4,30.16,NE,47,3.0,5.0,74,0.00,,,0.00,0.00,VWS V14.01,2013-02-17 03:11:00,
2013-02-16 22:12:00,18.3,11.4,30.16,NE,49,1.0,2.0,74,0.00,,,0.00,0.00,VWS V14.01,2013-02-17 03:12:00,
2013-02-16 22:14:00,18.2,11.3,30.16,NE,49,0.0,1.0,74,0.00,,,0.00,0.00,VWS V14.01,2013-02-17 03:14:00,
2013-02-16 22:16:00,18.2,11.3,30.16,NE,40,6.0,6.0,74,0.00,,,0.00,0.00,VWS V14.01,2013-02-17 03:16:00,
2013-02-16 22:17:00,18.2,11.3,30.16,NE,42,0.0,0.0,74,0.00,,,0.00,0.00,VWS V14.01,2013-02-17 03:17:00,
2013-02-16 22:19:00,18.2,11.6,30.16,NE,42,3.0,3.0,75,0.00,,,0.00,0.00,VWS V14.01,2013-02-17 03:19:00,
2013-02-16 22:21:00,18.2,11.9,30.16,NE,42,2.0,3.0,76,0.00,,,0.00,0.00,VWS V14.01,2013-02-17 03:21:00,
2013-02-16 22:22:00,18.2,11.9,30.16,NE,42,1.0,1.0,76,0.00,,,0.00,0.00,VWS V14.01,2013-02-17 03:22:00,
2013-02-16 22:24:00,18.2,12.2,30.16,NE,46,3.0,3.0,77,0.00,,,0.00,0.00,VWS V14.01,2013-02-17 03:24:00,
2013-02-16 22:26:00,18.1,11.8,30.16,NE,46,1.0,3.0,76,0.00,,,0.00,0.00,VWS V14.01,2013-02-17 03:26:00,
2013-02-16 22:27:00,18.1,11.8,30.16,NE,47,2.0,2.0,76,0.00,,,0.00,0.00,VWS V14.01,2013-02-17 03:27:00,
2013-02-16 22:29:00,18.0,11.7,30.16,NE,49,1.0,2.0,76,0.00,,,0.00,0.00,VWS V14.01,2013-02-17 03:29:00,
2013-02-16 22:31:00,18.1,11.8,30.16,NE,49,0.0,1.0,76,0.00,,,0.00,0.00,VWS V14.01,2013-02-17 03:31:00,
2013-02-16 22:32:00,18.0,11.7,30.16,NE,49,2.0,2.0,76,0.00,,,0.00,0.00,VWS V14.01,2013-02-17 03:32:00,
2013-02-16 22:34:00,18.0,11.7,30.16,NNE,33,4.0,4.0,76,0.00,,,0.00,0.00,VWS V14.01,2013-02-17 03:34:00,
2013-02-16 22:36:00,18.0,11.7,30.16,NE,36,3.0,4.0,76,0.00,,,0.00,0.00,VWS V14.01,2013-02-17 03:36:00,
2013-02-16 22:37:00,17.9,11.6,30.16,NE,39,3.0,4.0,76,0.00,,,0.00,0.00,VWS V14.01,2013-02-17 03:37:00,
2013-02-16 22:39:00,17.9,11.9,30.16,NE,39,1.0,2.0,77,0.00,,,0.00,0.00,VWS V14.01,2013-02-17 03:39:00,
2013-02-16 22:41:00,17.9,11.9,30.16,NE,39,3.0,3.0,77,0.00,,,0.00,0.00,VWS V14.01,2013-02-17 03:41:00,
2013-02-16 22:42:00,17.8,11.8,30.16,NE,39,2.0,4.0,77,0.00,,,0.00,0.00,VWS V14.01,2013-02-17 03:42:00,
2013-02-16 22:44:00,17.9,12.2,30.16,NE,39,2.0,2.0,78,0.00,,,0.00,0.00,VWS V14.01,2013-02-17 03:44:00,
2013-02-16 22:46:00,17.9,12.5,30.16,NE,39,1.0,2.0,79,0.00,,,0.00,0.00,VWS V14.01,2013-02-17 03:46:00,
2013-02-16 22:47:00,17.9,12.5,30.16,ENE,59,3.0,3.0,79,0.00,,,0.00,0.00,VWS V14.01,2013-02-17 03:47:00,
2013-02-16 22:49:00,17.8,12.4,30.16,ENE,59,1.0,3.0,79,0.00,,,0.00,0.00,VWS V14.01,2013-02-17 03:49:00,
2013-02-16 22:51:00,17.8,12.4,30.16,ENE,71,1.0,4.0,79,0.00,,,0.00,0.00,VWS V14.01,2013-02-17 03:51:00,
2013-02-16 22:52:00,17.8,12.4,30.16,ENE,71,1.0,3.0,79,0.00,,,0.00,0.00,VWS V14.01,2013-02-17 03:52:00,
2013-02-16 22:54:00,17.7,12.3,30.16,ENE,71,0.0,2.0,79,0.00,,,0.00,0.00,VWS V14.01,2013-02-17 03:54:00,
2013-02-16 22:56:00,17.7,12.6,30.16,ENE,72,2.0,3.0,80,0.00,,,0.00,0.00,VWS V14.01,2013-02-17 03:56:00,
2013-02-16 22:57:00,17.7,12.6,30.16,ENE,72,0.0,0.0,80,0.00,,,0.00,0.00,VWS V14.01,2013-02-17 03:57:00,
2013-02-16 22:59:00,17.7,12.6,30.16,ENE,73,2.0,3.0,80,0.00,,,0.00,0.00,VWS V14.01,2013-02-17 03:59:00,
2013-02-16 23:01:00,17.6,12.5,30.16,ENE,73,0.0,2.0,80,0.00,,,0.00,0.00,VWS V14.01,2013-02-17 04:01:00,
2013-02-16 23:02:00,17.6,12.5,30.16,ENE,73,0.0,1.0,80,0.00,,,0.00,0.00,VWS V14.01,2013-02-17 04:02:00,
2013-02-16 23:04:00,17.6,12.5,30.16,ENE,73,1.0,2.0,80,0.00,,,0.00,0.00,VWS V14.01,2013-02-17 04:04:00,
2013-02-16 23:06:00,17.6,12.8,30.16,ENE,73,1.0,2.0,81,0.00,,,0.00,0.00,VWS V14.01,2013-02-17 04:06:00,
2013-02-16 23:07:00,17.6,12.8,30.16,NE,45,2.0,5.0,81,0.00,,,0.00,0.00,VWS V14.01,2013-02-17 04:07:00,
2013-02-16 23:09:00,17.5,12.7,30.16,NE,45,1.0,2.0,81,0.00,,,0.00,0.00,VWS V14.01,2013-02-17 04:09:00,
2013-02-16 23:11:00,17.4,12.3,30.16,NE,45,2.0,2.0,80,0.00,,,0.00,0.00,VWS V14.01,2013-02-17 04:11:00,
2013-02-16 23:12:00,17.4,12.3,30.16,NE,40,2.0,3.0,80,0.00,,,0.00,0.00,VWS V14.01,2013-02-17 04:12:00,
2013-02-16 23:14:00,17.3,12.5,30.16,NE,41,0.0,2.0,81,0.00,,,0.00,0.00,VWS V14.01,2013-02-17 04:14:00,
2013-02-16 23:16:00,17.3,12.5,30.16,NE,41,0.0,0.0,81,0.00,,,0.00,0.00,VWS V14.01,2013-02-17 04:16:00,
2013-02-16 23:17:00,17.2,12.4,30.16,NE,38,2.0,4.0,81,0.00,,,0.00,0.00,VWS V14.01,2013-02-17 04:17:00,
2013-02-16 23:19:00,17.2,12.4,30.16,NE,38,3.0,3.0,81,0.00,,,0.00,0.00,VWS V14.01,2013-02-17 04:19:00,
2013-02-16 23:21:00,17.1,12.3,30.15,NE,38,0.0,0.0,81,0.00,,,0.00,0.00,VWS V14.01,2013-02-17 04:21:00,
2013-02-16 23:22:00,17.1,12.3,30.16,NE,38,0.0,1.0,81,0.00,,,0.00,0.00,VWS V14.01,2013-02-17 04:22:00,
2013-02-16 23:24:00,17.0,12.2,30.16,NE,37,1.0,2.0,81,0.00,,,0.00,0.00,VWS V14.01,2013-02-17 04:24:00,
2013-02-16 23:26:00,17.0,12.2,30.15,NE,37,0.0,2.0,81,0.00,,,0.00,0.00,VWS V14.01,2013-02-17 04:26:00,
2013-02-16 23:27:00,17.0,12.2,30.16,NE,37,1.0,1.0,81,0.00,,,0.00,0.00,VWS V14.01,2013-02-17 04:27:00,
2013-02-16 23:29:00,17.0,12.2,30.16,NNE,30,2.0,3.0,81,0.00,,,0.00,0.00,VWS V14.01,2013-02-17 04:29:00,
2013-02-16 23:31:00,17.0,12.5,30.16,NNE,30,2.0,2.0,82,0.00,,,0.00,0.00,VWS V14.01,2013-02-17 04:31:00,
2013-02-16 23:32:00,16.9,12.4,30.15,NNE,23,3.0,3.0,82,0.00,,,0.00,0.00,VWS V14.01,2013-02-17 04:32:00,
2013-02-16 23:34:00,16.8,12.0,30.15,NNE,21,0.0,2.0,81,0.00,,,0.00,0.00,VWS V14.01,2013-02-17 04:34:00,
2013-02-16 23:35:00,16.9,12.1,30.15,NNE,21,0.0,2.0,81,0.00,,,0.00,0.00,VWS V14.01,2013-02-17 04:35:00,
2013-02-16 23:36:00,16.8,12.0,30.16,NNE,21,1.0,1.0,81,0.00,,,0.00,0.00,VWS V14.01,2013-02-17 04:36:00,
2013-02-16 23:37:00,16.8,12.0,30.15,NNE,21,0.0,1.0,81,0.00,,,0.00,0.00,VWS V14.01,2013-02-17 04:37:00,
2013-02-16 23:39:00,16.7,12.2,30.16,NNE,21,0.0,2.0,82,0.00,,,0.00,0.00,VWS V14.01,2013-02-17 04:39:00,
2013-02-16 23:40:00,16.7,12.2,30.16,NNE,21,0.0,2.0,82,0.00,,,0.00,0.00,VWS V14.01,2013-02-17 04:40:00,
2013-02-16 23:41:00,16.7,12.2,30.15,NNE,21,1.0,1.0,82,0.00,,,0.00,0.00,VWS V14.01,2013-02-17 04:41:00,
2013-02-16 23:42:00,16.6,12.1,30.15,NNE,21,0.0,0.0,82,0.00,,,0.00,0.00,VWS V14.01,2013-02-17 04:42:00,
2013-02-16 23:44:00,16.6,12.1,30.15,NNE,21,0.0,0.0,82,0.00,,,0.00,0.00,VWS V14.01,2013-02-17 04:44:00,
2013-02-16 23:45:00,16.6,12.1,30.15,NNE,21,0.0,0.0,82,0.00,,,0.00,0.00,VWS V14.01,2013-02-17 04:45:00,
2013-02-16 23:46:00,16.6,12.1,30.15,NNE,21,0.0,0.0,82,0.00,,,0.00,0.00,VWS V14.01,2013-02-17 04:46:00,
2013-02-16 23:48:00,16.5,12.0,30.15,NNE,21,0.0,0.0,82,0.00,,,0.00,0.00,VWS V14.01,2013-02-17 04:48:00,
2013-02-16 23:50:00,16.5,12.0,30.15,NNE,21,0.0,0.0,82,0.00,,,0.00,0.00,VWS V14.01,2013-02-17 04:50:00,
2013-02-16 23:51:00,16.4,11.9,30.15,NNE,21,0.0,0.0,82,0.00,,,0.00,0.00,VWS V14.01,2013-02-17 04:51:00,
2013-02-16 23:53:00,16.4,11.9,30.15,NNE,21,2.0,3.0,82,0.00,,,0.00,0.00,VWS V14.01,2013-02-17 04:53:00,
2013-02-16 23:55:00,16.4,12.1,30.15,NNE,21,0.0,2.0,83,0.00,,,0.00,0.00,VWS V14.01,2013-02-17 04:55:00,
2013-02-16 23:56:00,16.4,12.1,30.15,NNE,20,1.0,2.0,83,0.00,,,0.00,0.00,VWS V14.01,2013-02-17 04:56:00,
2013-02-16 23:58:00,16.4,12.1,30.15,NNE,19,0.0,2.0,83,0.00,,,0.00,0.00,VWS V14.01,2013-02-17 04:58:00,